Wetterdaten: Samstag, 20.07.2013
Datum Zeit Temp. Aussen +5cm Feuchte Auss Luftdruck Regen Sonnenschein Regendauer UV Solar Windben
20.07.2013 00:00 19,6 C 18,4 C 75 % 1022,2 hPa 0,0 l/m 0 min 0 min 0,0 UV-I 0 W/m 12,9 km/h (3 Bft)
20.07.2013 00:02 19,5 C 18,4 C 75 % 1022,3 hPa 0,0 l/m 0 min 0 min 0,0 UV-I 0 W/m 10,3 km/h (2 Bft)
20.07.2013 00:06 19,4 C 17,9 C 75 % 1022,3 hPa 0,0 l/m 0 min 0 min 0,0 UV-I 0 W/m 12,9 km/h (3 Bft)
20.07.2013 00:08 19,4 C 18,4 C 75 % 1022,4 hPa 0,0 l/m 0 min 0 min 0,0 UV-I 0 W/m 18,0 km/h (3 Bft)
20.07.2013 00:10 19,4 C 17,9 C 75 % 1022,3 hPa 0,0 l/m 0 min 0 min 0,0 UV-I 0 W/m 10,3 km/h (2 Bft)
20.07.2013 00:12 19,4 C 17,9 C 75 % 1022,3 hPa 0,0 l/m 0 min 0 min 0,0 UV-I 0 W/m 10,3 km/h (2 Bft)
20.07.2013 00:14 19,3 C 17,9 C 75 % 1022,3 hPa 0,0 l/m 0 min 0 min 0,0 UV-I 0 W/m 10,3 km/h (2 Bft)
20.07.2013 00:16 19,3 C 17,9 C 76 % 1022,3 hPa 0,0 l/m 0 min 0 min 0,0 UV-I 0 W/m 7,7 km/h (2 Bft)
20.07.2013 00:18 19,3 C 17,9 C 76 % 1022,3 hPa 0,0 l/m 0 min 0 min 0,0 UV-I 0 W/m 10,3 km/h (2 Bft)
20.07.2013 00:20 19,3 C 17,9 C 76 % 1022,3 hPa 0,0 l/m 0 min 0 min 0,0 UV-I 0 W/m 2,6 km/h (1 Bft)
20.07.2013 00:22 19,2 C 17,9 C 76 % 1022,2 hPa 0,0 l/m 0 min 0 min 0,0 UV-I 0 W/m 2,6 km/h (1 Bft)
20.07.2013 00:24 19,2 C 17,9 C 76 % 1022,3 hPa 0,0 l/m 0 min 0 min 0,0 UV-I 0 W/m 2,6 km/h (1 Bft)
20.07.2013 00:26 19,2 C 17,9 C 76 % 1022,3 hPa 0,0 l/m 0 min 0 min 0,0 UV-I 0 W/m 0,0 km/h (0 Bft)
20.07.2013 00:28 19,1 C 17,9 C 76 % 1022,3 hPa 0,0 l/m 0 min 0 min 0,0 UV-I 0 W/m 2,6 km/h (1 Bft)
20.07.2013 00:30 19,1 C 17,9 C 76 % 1022,4 hPa 0,0 l/m 0 min 0 min 0,0 UV-I 0 W/m 0,0 km/h (0 Bft)
20.07.2013 00:32 19,1 C 17,9 C 76 % 1022,4 hPa 0,0 l/m 0 min 0 min 0,0 UV-I 0 W/m 2,6 km/h (1 Bft)
20.07.2013 00:34 19,0 C 17,9 C 76 % 1022,4 hPa 0,0 l/m 0 min 0 min 0,0 UV-I 0 W/m 2,6 km/h (1 Bft)
20.07.2013 00:36 18,9 C 17,9 C 77 % 1022,4 hPa 0,0 l/m 0 min 0 min 0,0 UV-I 0 W/m 0,0 km/h (0 Bft)
20.07.2013 00:38 18,9 C 17,9 C 77 % 1022,3 hPa 0,0 l/m 0 min 0 min 0,0 UV-I 0 W/m 2,6 km/h (1 Bft)
20.07.2013 00:40 18,9 C 17,3 C 77 % 1022,3 hPa 0,0 l/m 0 min 0 min 0,0 UV-I 0 W/m 7,7 km/h (2 Bft)
20.07.2013 00:42 18,9 C 17,3 C 77 % 1022,3 hPa 0,0 l/m 0 min 0 min 0,0 UV-I 0 W/m 0,0 km/h (0 Bft)
20.07.2013 00:44 18,8 C 17,3 C 77 % 1022,3 hPa 0,0 l/m 0 min 0 min 0,0 UV-I 0 W/m 10,3 km/h (2 Bft)
20.07.2013 00:46 18,8 C 17,3 C 77 % 1022,3 hPa 0,0 l/m 0 min 0 min 0,0 UV-I 0 W/m 7,7 km/h (2 Bft)
20.07.2013 00:48 18,8 C 17,3 C 77 % 1022,3 hPa 0,0 l/m 0 min 0 min 0,0 UV-I 0 W/m 5,1 km/h (1 Bft)
20.07.2013 00:50 18,7 C 17,3 C 77 % 1022,3 hPa 0,0 l/m 0 min 0 min 0,0 UV-I 0 W/m 2,6 km/h (1 Bft)
20.07.2013 00:52 18,7 C 17,3 C 78 % 1022,4 hPa 0,0 l/m 0 min 0 min 0,0 UV-I 0 W/m 0,0 km/h (0 Bft)
20.07.2013 00:54 18,6 C 16,8 C 78 % 1022,4 hPa 0,0 l/m 0 min 0 min 0,0 UV-I 0 W/m 0,0 km/h (0 Bft)
20.07.2013 00:56 18,6 C 16,8 C 78 % 1022,3 hPa 0,0 l/m 0 min 0 min 0,0 UV-I 0 W/m 2,6 km/h (1 Bft)
20.07.2013 00:58 18,6 C 16,8 C 78 % 1022,4 hPa 0,0 l/m 0 min 0 min 0,0 UV-I 0 W/m 0,0 km/h (0 Bft)
20.07.2013 01:00 18,5 C 16,8 C 78 % 1022,4 hPa 0,0 l/m 0 min 0 min 0,0 UV-I 0 W/m 0,0 km/h (0 Bft)
20.07.2013 01:02 18,4 C 16,8 C 78 % 1022,3 hPa 0,0 l/m 0 min 0 min 0,0 UV-I 0 W/m 0,0 km/h (0 Bft)
20.07.2013 01:06 18,4 C 16,8 C 78 % 1022,3 hPa 0,0 l/m 0 min 0 min 0,0 UV-I 0 W/m 0,0 km/h (0 Bft)
20.07.2013 01:08 18,4 C 16,2 C 78 % 1022,3 hPa 0,0 l/m 0 min 0 min 0,0 UV-I 0 W/m 0,0 km/h (0 Bft)
20.07.2013 01:10 18,3 C 16,2 C 78 % 1022,3 hPa 0,0 l/m 0 min 0 min 0,0 UV-I 0 W/m 0,0 km/h (0 Bft)
20.07.2013 01:12 18,3 C 16,2 C 78 % 1022,4 hPa 0,0 l/m 0 min 0 min 0,0 UV-I 0 W/m 0,0 km/h (0 Bft)
20.07.2013 01:14 18,3 C 16,2 C 78 % 1022,4 hPa 0,0 l/m 0 min 0 min 0,0 UV-I 0 W/m 0,0 km/h (0 Bft)
20.07.2013 01:16 18,2 C 16,2 C 78 % 1022,4 hPa 0,0 l/m 0 min 0 min 0,0 UV-I 0 W/m 0,0 km/h (0 Bft)
20.07.2013 01:18 18,2 C 16,2 C 79 % 1022,3 hPa 0,0 l/m 0 min 0 min 0,0 UV-I 0 W/m 0,0 km/h (0 Bft)
20.07.2013 01:20 18,2 C 16,2 C 79 % 1022,3 hPa 0,0 l/m 0 min 0 min 0,0 UV-I 0 W/m 0,0 km/h (0 Bft)
20.07.2013 01:22 18,1 C 16,2 C 79 % 1022,3 hPa 0,0 l/m 0 min 0 min 0,0 UV-I 0 W/m 0,0 km/h (0 Bft)
20.07.2013 01:24 18,1 C 16,2 C 79 % 1022,4 hPa 0,0 l/m 0 min 0 min 0,0 UV-I 0 W/m 0,0 km/h (0 Bft)
20.07.2013 01:26 18,0 C 16,2 C 79 % 1022,3 hPa 0,0 l/m 0 min 0 min 0,0 UV-I 0 W/m 0,0 km/h (0 Bft)
20.07.2013 01:28 17,9 C 16,2 C 79 % 1022,4 hPa 0,0 l/m 0 min 0 min 0,0 UV-I 0 W/m 0,0 km/h (0 Bft)
20.07.2013 01:30 17,9 C 16,2 C 79 % 1022,3 hPa 0,0 l/m 0 min 0 min 0,0 UV-I 0 W/m 0,0 km/h (0 Bft)
20.07.2013 01:32 17,9 C 16,2 C 79 % 1022,4 hPa 0,0 l/m 0 min 0 min 0,0 UV-I 0 W/m 0,0 km/h (0 Bft)
20.07.2013 01:34 17,9 C 15,7 C 79 % 1022,4 hPa 0,0 l/m 0 min 0 min 0,0 UV-I 0 W/m 0,0 km/h (0 Bft)
20.07.2013 01:36 17,8 C 15,7 C 79 % 1022,3 hPa 0,0 l/m 0 min 0 min 0,0 UV-I 0 W/m 0,0 km/h (0 Bft)
20.07.2013 01:38 17,8 C 15,7 C 80 % 1022,4 hPa 0,0 l/m 0 min 0 min 0,0 UV-I 0 W/m 0,0 km/h (0 Bft)
20.07.2013 01:40 17,8 C 15,7 C 80 % 1022,3 hPa 0,0 l/m 0 min 0 min 0,0 UV-I 0 W/m 0,0 km/h (0 Bft)
20.07.2013 01:42 17,7 C 15,7 C 80 % 1022,2 hPa 0,0 l/m 0 min 0 min 0,0 UV-I 0 W/m 0,0 km/h (0 Bft)
20.07.2013 01:44 17,7 C 15,1 C 80 % 1022,3 hPa 0,0 l/m 0 min 0 min 0,0 UV-I 0 W/m 0,0 km/h (0 Bft)
20.07.2013 01:46 17,7 C 15,1 C 80 % 1022,4 hPa 0,0 l/m 0 min 0 min 0,0 UV-I 0 W/m 0,0 km/h (0 Bft)
20.07.2013 01:48 17,6 C 15,1 C 80 % 1022,4 hPa 0,0 l/m 0 min 0 min 0,0 UV-I 0 W/m 0,0 km/h (0 Bft)
20.07.2013 01:50 17,6 C 15,1 C 80 % 1022,3 hPa 0,0 l/m 0 min 0 min 0,0 UV-I 0 W/m 0,0 km/h (0 Bft)
20.07.2013 01:52 17,5 C 15,1 C 80 % 1022,3 hPa 0,0 l/m 0 min 0 min 0,0 UV-I 0 W/m 0,0 km/h (0 Bft)
20.07.2013 01:54 17,4 C 15,1 C 80 % 1022,2 hPa 0,0 l/m 0 min 0 min 0,0 UV-I 0 W/m 0,0 km/h (0 Bft)
20.07.2013 01:56 17,4 C 15,1 C 81 % 1022,2 hPa 0,0 l/m 0 min 0 min 0,0 UV-I 0 W/m 0,0 km/h (0 Bft)
20.07.2013 01:58 17,4 C 15,1 C 81 % 1022,2 hPa 0,0 l/m 0 min 0 min 0,0 UV-I 0 W/m 0,0 km/h (0 Bft)
20.07.2013 02:00 17,3 C 15,7 C 81 % 1022,2 hPa 0,0 l/m 0 min 0 min 0,0 UV-I 0 W/m 0,0 km/h (0 Bft)
20.07.2013 02:02 17,3 C 15,7 C 81 % 1022,2 hPa 0,0 l/m 0 min 0 min 0,0 UV-I 0 W/m 0,0 km/h (0 Bft)
20.07.2013 02:06 17,2 C 15,7 C 82 % 1022,2 hPa 0,0 l/m 0 min 0 min 0,0 UV-I 0 W/m 2,6 km/h (1 Bft)
20.07.2013 02:08 17,2 C 15,7 C 82 % 1022,2 hPa 0,0 l/m 0 min 0 min 0,0 UV-I 0 W/m 0,0 km/h (0 Bft)
20.07.2013 02:10 17,2 C 15,7 C 82 % 1022,2 hPa 0,0 l/m 0 min 0 min 0,0 UV-I 0 W/m 0,0 km/h (0 Bft)
20.07.2013 02:12 17,1 C 15,7 C 82 % 1022,1 hPa 0,0 l/m 0 min 0 min 0,0 UV-I 0 W/m 0,0 km/h (0 Bft)
20.07.2013 02:14 17,1 C 15,7 C 82 % 1022,2 hPa 0,0 l/m 0 min 0 min 0,0 UV-I 0 W/m 2,6 km/h (1 Bft)
20.07.2013 02:16 17,1 C 15,7 C 83 % 1022,1 hPa 0,0 l/m 0 min 0 min 0,0 UV-I 0 W/m 0,0 km/h (0 Bft)
20.07.2013 02:18 17,0 C 15,7 C 83 % 1022,1 hPa 0,0 l/m 0 min 0 min 0,0 UV-I 0 W/m 0,0 km/h (0 Bft)
20.07.2013 02:20 16,9 C 15,7 C 83 % 1022,1 hPa 0,0 l/m 0 min 0 min 0,0 UV-I 0 W/m 2,6 km/h (1 Bft)
20.07.2013 02:22 16,9 C 15,7 C 83 % 1022,1 hPa 0,0 l/m 0 min 0 min 0,0 UV-I 0 W/m 0,0 km/h (0 Bft)
20.07.2013 02:24 16,9 C 15,7 C 83 % 1022,1 hPa 0,0 l/m 0 min 0 min 0,0 UV-I 0 W/m 2,6 km/h (1 Bft)
20.07.2013 02:26 16,8 C 15,7 C 83 % 1022,0 hPa 0,0 l/m 0 min 0 min 0,0 UV-I 0 W/m 0,0 km/h (0 Bft)
20.07.2013 02:28 16,8 C 15,7 C 83 % 1022,0 hPa 0,0 l/m 0 min 0 min 0,0 UV-I 0 W/m 2,6 km/h (1 Bft)
20.07.2013 02:30 16,8 C 15,7 C 83 % 1022,0 hPa 0,0 l/m 0 min 0 min 0,0 UV-I 0 W/m 0,0 km/h (0 Bft)
20.07.2013 02:32 16,7 C 15,7 C 84 % 1022,0 hPa 0,0 l/m 0 min 0 min 0,0 UV-I 0 W/m 2,6 km/h (1 Bft)
20.07.2013 02:34 16,7 C 15,7 C 84 % 1022,0 hPa 0,0 l/m 0 min 0 min 0,0 UV-I 0 W/m 7,7 km/h (2 Bft)
20.07.2013 02:36 16,7 C 15,7 C 84 % 1022,0 hPa 0,0 l/m 0 min 0 min 0,0 UV-I 0 W/m 2,6 km/h (1 Bft)
20.07.2013 02:38 16,7 C 15,7 C 84 % 1021,9 hPa 0,0 l/m 0 min 0 min 0,0 UV-I 0 W/m 7,7 km/h (2 Bft)
20.07.2013 02:40 16,6 C 15,1 C 84 % 1022,0 hPa 0,0 l/m 0 min 0 min 0,0 UV-I 0 W/m 7,7 km/h (2 Bft)
20.07.2013 02:42 16,6 C 15,1 C 84 % 1022,0 hPa 0,0 l/m 0 min 0 min 0,0 UV-I 0 W/m 0,0 km/h (0 Bft)
20.07.2013 02:44 16,6 C 15,1 C 84 % 1022,0 hPa 0,0 l/m 0 min 0 min 0,0 UV-I 0 W/m 0,0 km/h (0 Bft)
20.07.2013 02:46 16,6 C 15,1 C 84 % 1022,0 hPa 0,0 l/m 0 min 0 min 0,0 UV-I 0 W/m 0,0 km/h (0 Bft)
20.07.2013 02:48 16,5 C 15,1 C 84 % 1021,9 hPa 0,0 l/m 0 min 0 min 0,0 UV-I 0 W/m 0,0 km/h (0 Bft)
20.07.2013 02:50 16,5 C 15,1 C 84 % 1021,9 hPa 0,0 l/m 0 min 0 min 0,0 UV-I 0 W/m 0,0 km/h (0 Bft)
20.07.2013 02:52 16,4 C 15,1 C 84 % 1021,9 hPa 0,0 l/m 0 min 0 min 0,0 UV-I 0 W/m 2,6 km/h (1 Bft)
20.07.2013 02:54 16,4 C 15,1 C 84 % 1021,9 hPa 0,0 l/m 0 min 0 min 0,0 UV-I 0 W/m 0,0 km/h (0 Bft)
20.07.2013 02:56 16,4 C 15,1 C 84 % 1022,0 hPa 0,0 l/m 0 min 0 min 0,0 UV-I 0 W/m 0,0 km/h (0 Bft)
20.07.2013 02:58 16,4 C 15,1 C 84 % 1022,0 hPa 0,0 l/m 0 min 0 min 0,0 UV-I 0 W/m 7,7 km/h (2 Bft)
20.07.2013 03:00 16,3 C 15,1 C 85 % 1022,0 hPa 0,0 l/m 0 min 0 min 0,0 UV-I 0 W/m 5,1 km/h (1 Bft)
20.07.2013 03:02 16,3 C 15,1 C 85 % 1021,9 hPa 0,0 l/m 0 min 0 min 0,0 UV-I 0 W/m 7,7 km/h (2 Bft)
20.07.2013 03:05 16,3 C 15,1 C 85 % 1021,9 hPa 0,0 l/m 0 min 0 min 0,0 UV-I 0 W/m 7,7 km/h (2 Bft)
20.07.2013 03:06 16,3 C 15,1 C 85 % 1021,9 hPa 0,0 l/m 0 min 0 min 0,0 UV-I 0 W/m 7,7 km/h (2 Bft)
20.07.2013 03:08 16,3 C 15,1 C 85 % 1021,9 hPa 0,0 l/m 0 min 0 min 0,0 UV-I 0 W/m 0,0 km/h (0 Bft)
20.07.2013 03:10 16,2 C 15,1 C 85 % 1021,9 hPa 0,0 l/m 0 min 0 min 0,0 UV-I 0 W/m 5,1 km/h (1 Bft)
20.07.2013 03:12 16,2 C 15,1 C 85 % 1021,9 hPa 0,0 l/m 0 min 0 min 0,0 UV-I 0 W/m 7,7 km/h (2 Bft)
20.07.2013 03:14 16,2 C 15,1 C 85 % 1021,9 hPa 0,0 l/m 0 min 0 min 0,0 UV-I 0 W/m 7,7 km/h (2 Bft)
20.07.2013 03:16 16,2 C 15,1 C 85 % 1021,9 hPa 0,0 l/m 0 min 0 min 0,0 UV-I 0 W/m 7,7 km/h (2 Bft)
20.07.2013 03:18 16,1 C 15,1 C 85 % 1022,0 hPa 0,0 l/m 0 min 0 min 0,0 UV-I 0 W/m 2,6 km/h (1 Bft)
20.07.2013 03:20 16,1 C 15,1 C 85 % 1022,0 hPa 0,0 l/m 0 min 0 min 0,0 UV-I 0 W/m 2,6 km/h (1 Bft)
20.07.2013 03:22 16,1 C 15,1 C 85 % 1022,1 hPa 0,0 l/m 0 min 0 min 0,0 UV-I 0 W/m 5,1 km/h (1 Bft)
20.07.2013 03:24 16,1 C 15,1 C 86 % 1022,1 hPa 0,0 l/m 0 min 0 min 0,0 UV-I 0 W/m 0,0 km/h (0 Bft)
20.07.2013 03:26 16,1 C 15,1 C 86 % 1022,1 hPa 0,0 l/m 0 min 0 min 0,0 UV-I 0 W/m 0,0 km/h (0 Bft)
20.07.2013 03:28 16,1 C 15,1 C 86 % 1022,1 hPa 0,0 l/m 0 min 0 min 0,0 UV-I 0 W/m 7,7 km/h (2 Bft)
20.07.2013 03:30 16,1 C 15,1 C 86 % 1022,1 hPa 0,0 l/m 0 min 0 min 0,0 UV-I 0 W/m 2,6 km/h (1 Bft)
20.07.2013 03:32 16,0 C 15,1 C 86 % 1022,0 hPa 0,0 l/m 0 min 0 min 0,0 UV-I 0 W/m 10,3 km/h (2 Bft)
20.07.2013 03:34 16,0 C 15,1 C 86 % 1022,0 hPa 0,0 l/m 0 min 0 min 0,0 UV-I 0 W/m 0,0 km/h (0 Bft)
20.07.2013 03:36 15,9 C 15,1 C 86 % 1022,0 hPa 0,0 l/m 0 min 0 min 0,0 UV-I 0 W/m 0,0 km/h (0 Bft)
20.07.2013 03:38 15,9 C 15,1 C 87 % 1022,0 hPa 0,0 l/m 0 min 0 min 0,0 UV-I 0 W/m 0,0 km/h (0 Bft)
20.07.2013 03:40 15,9 C 14,6 C 87 % 1022,0 hPa 0,0 l/m 0 min 0 min 0,0 UV-I 0 W/m 0,0 km/h (0 Bft)
20.07.2013 03:42 15,9 C 14,6 C 87 % 1022,0 hPa 0,0 l/m 0 min 0 min 0,0 UV-I 0 W/m 2,6 km/h (1 Bft)
20.07.2013 03:44 15,9 C 14,6 C 87 % 1021,9 hPa 0,0 l/m 0 min 0 min 0,0 UV-I 0 W/m 2,6 km/h (1 Bft)
20.07.2013 03:46 15,8 C 14,6 C 87 % 1021,9 hPa 0,0 l/m 0 min 0 min 0,0 UV-I 0 W/m 0,0 km/h (0 Bft)
20.07.2013 03:48 15,8 C 14,6 C 87 % 1022,0 hPa 0,0 l/m 0 min 0 min 0,0 UV-I 0 W/m 0,0 km/h (0 Bft)
20.07.2013 03:50 15,8 C 14,6 C 87 % 1021,9 hPa 0,0 l/m 0 min 0 min 0,0 UV-I 0 W/m 0,0 km/h (0 Bft)
20.07.2013 03:52 15,8 C 14,6 C 87 % 1021,9 hPa 0,0 l/m 0 min 0 min 0,0 UV-I 0 W/m 0,0 km/h (0 Bft)
20.07.2013 03:54 15,8 C 14,6 C 87 % 1021,9 hPa 0,0 l/m 0 min 0 min 0,0 UV-I 0 W/m 2,6 km/h (1 Bft)
20.07.2013 03:56 15,7 C 14,6 C 87 % 1021,9 hPa 0,0 l/m 0 min 0 min 0,0 UV-I 0 W/m 0,0 km/h (0 Bft)
20.07.2013 03:58 15,7 C 14,6 C 88 % 1021,9 hPa 0,0 l/m 0 min 0 min 0,0 UV-I 0 W/m 0,0 km/h (0 Bft)
20.07.2013 04:00 15,7 C 14,6 C 88 % 1021,9 hPa 0,0 l/m 0 min 0 min 0,0 UV-I 0 W/m 0,0 km/h (0 Bft)
20.07.2013 04:02 15,6 C 14,6 C 88 % 1022,0 hPa 0,0 l/m 0 min 0 min 0,0 UV-I 0 W/m 0,0 km/h (0 Bft)
20.07.2013 04:06 15,6 C 14,6 C 88 % 1021,9 hPa 0,0 l/m 0 min 0 min 0,0 UV-I 0 W/m 0,0 km/h (0 Bft)
20.07.2013 04:08 15,6 C 14,6 C 88 % 1021,9 hPa 0,0 l/m 0 min 0 min 0,0 UV-I 0 W/m 0,0 km/h (0 Bft)
20.07.2013 04:10 15,5 C 14,6 C 88 % 1022,0 hPa 0,0 l/m 0 min 0 min 0,0 UV-I 0 W/m 2,6 km/h (1 Bft)
20.07.2013 04:12 15,4 C 14,0 C 88 % 1021,9 hPa 0,0 l/m 0 min 0 min 0,0 UV-I 0 W/m 0,0 km/h (0 Bft)
20.07.2013 04:14 15,4 C 14,0 C 88 % 1021,9 hPa 0,0 l/m 0 min 0 min 0,0 UV-I 0 W/m 0,0 km/h (0 Bft)
20.07.2013 04:16 15,4 C 14,0 C 88 % 1021,9 hPa 0,0 l/m 0 min 0 min 0,0 UV-I 0 W/m 0,0 km/h (0 Bft)
20.07.2013 04:18 15,4 C 14,0 C 88 % 1021,9 hPa 0,0 l/m 0 min 0 min 0,0 UV-I 0 W/m 0,0 km/h (0 Bft)
20.07.2013 04:20 15,4 C 14,0 C 88 % 1021,9 hPa 0,0 l/m 0 min 0 min 0,0 UV-I 0 W/m 0,0 km/h (0 Bft)
20.07.2013 04:22 15,4 C 14,0 C 88 % 1021,9 hPa 0,0 l/m 0 min 0 min 0,0 UV-I 0 W/m 0,0 km/h (0 Bft)
20.07.2013 04:24 15,3 C 14,0 C 88 % 1021,9 hPa 0,0 l/m 0 min 0 min 0,0 UV-I 0 W/m 0,0 km/h (0 Bft)
20.07.2013 04:26 15,3 C 14,0 C 88 % 1021,9 hPa 0,0 l/m 0 min 0 min 0,0 UV-I 0 W/m 0,0 km/h (0 Bft)
20.07.2013 04:28 15,3 C 14,0 C 88 % 1021,9 hPa 0,0 l/m 0 min 0 min 0,0 UV-I 0 W/m 0,0 km/h (0 Bft)
20.07.2013 04:30 15,3 C 14,0 C 88 % 1021,9 hPa 0,0 l/m 0 min 0 min 0,0 UV-I 0 W/m 0,0 km/h (0 Bft)
20.07.2013 04:32 15,3 C 14,0 C 88 % 1021,9 hPa 0,0 l/m 0 min 0 min 0,0 UV-I 0 W/m 0,0 km/h (0 Bft)
20.07.2013 04:34 15,2 C 14,0 C 88 % 1021,9 hPa 0,0 l/m 0 min 0 min 0,0 UV-I 0 W/m 0,0 km/h (0 Bft)
20.07.2013 04:36 15,2 C 13,4 C 89 % 1021,9 hPa 0,0 l/m 0 min 0 min 0,0 UV-I 0 W/m 0,0 km/h (0 Bft)
20.07.2013 04:38 15,2 C 13,4 C 89 % 1021,9 hPa 0,0 l/m 0 min 0 min 0,0 UV-I 0 W/m 0,0 km/h (0 Bft)
20.07.2013 04:40 15,2 C 13,4 C 89 % 1021,8 hPa 0,0 l/m 0 min 0 min 0,0 UV-I 0 W/m 0,0 km/h (0 Bft)
20.07.2013 04:42 15,2 C 13,4 C 89 % 1021,8 hPa 0,0 l/m 0 min 0 min 0,0 UV-I 0 W/m 0,0 km/h (0 Bft)
20.07.2013 04:44 15,1 C 13,4 C 89 % 1021,8 hPa 0,0 l/m 0 min 0 min 0,0 UV-I 0 W/m 0,0 km/h (0 Bft)
20.07.2013 04:46 15,1 C 14,0 C 89 % 1021,8 hPa 0,0 l/m 0 min 0 min 0,0 UV-I 0 W/m 0,0 km/h (0 Bft)
20.07.2013 04:48 15,1 C 14,0 C 89 % 1021,8 hPa 0,0 l/m 0 min 0 min 0,0 UV-I 0 W/m 0,0 km/h (0 Bft)
20.07.2013 04:50 15,1 C 14,0 C 90 % 1021,7 hPa 0,0 l/m 0 min 0 min 0,0 UV-I 0 W/m 0,0 km/h (0 Bft)
20.07.2013 04:52 15,1 C 14,0 C 89 % 1021,8 hPa 0,0 l/m 0 min 0 min 0,0 UV-I 0 W/m 0,0 km/h (0 Bft)
20.07.2013 04:54 15,0 C 14,0 C 90 % 1021,7 hPa 0,0 l/m 0 min 0 min 0,0 UV-I 0 W/m 0,0 km/h (0 Bft)
20.07.2013 04:56 15,0 C 14,0 C 90 % 1021,6 hPa 0,0 l/m 0 min 0 min 0,0 UV-I 0 W/m 0,0 km/h (0 Bft)
20.07.2013 04:58 15,0 C 14,0 C 90 % 1021,7 hPa 0,0 l/m 0 min 0 min 0,0 UV-I 0 W/m 0,0 km/h (0 Bft)
20.07.2013 05:00 14,9 C 14,0 C 90 % 1021,7 hPa 0,0 l/m 0 min 0 min 0,0 UV-I 0 W/m 0,0 km/h (0 Bft)
20.07.2013 05:02 14,9 C 13,4 C 90 % 1021,7 hPa 0,0 l/m 0 min 0 min 0,0 UV-I 0 W/m 0,0 km/h (0 Bft)
20.07.2013 05:06 14,9 C 13,4 C 90 % 1021,7 hPa 0,0 l/m 0 min 0 min 0,0 UV-I 0 W/m 0,0 km/h (0 Bft)
20.07.2013 05:08 14,9 C 13,4 C 91 % 1021,7 hPa 0,0 l/m 0 min 0 min 0,0 UV-I 0 W/m 0,0 km/h (0 Bft)
20.07.2013 05:10 14,9 C 13,4 C 91 % 1021,7 hPa 0,0 l/m 0 min 0 min 0,0 UV-I 0 W/m 0,0 km/h (0 Bft)
20.07.2013 05:12 14,8 C 14,0 C 91 % 1021,7 hPa 0,0 l/m 0 min 0 min 0,0 UV-I 0 W/m 0,0 km/h (0 Bft)
20.07.2013 05:14 14,8 C 14,0 C 91 % 1021,7 hPa 0,0 l/m 0 min 0 min 0,0 UV-I 0 W/m 0,0 km/h (0 Bft)
20.07.2013 05:16 14,8 C 13,4 C 91 % 1021,7 hPa 0,0 l/m 0 min 0 min 0,0 UV-I 0 W/m 0,0 km/h (0 Bft)
20.07.2013 05:18 14,8 C 13,4 C 91 % 1021,7 hPa 0,0 l/m 0 min 0 min 0,0 UV-I 0 W/m 0,0 km/h (0 Bft)
20.07.2013 05:20 14,8 C 13,4 C 91 % 1021,7 hPa 0,0 l/m 0 min 0 min 0,0 UV-I 0 W/m 0,0 km/h (0 Bft)
20.07.2013 05:22 14,8 C 13,4 C 91 % 1021,7 hPa 0,0 l/m 0 min 0 min 0,0 UV-I 0 W/m 0,0 km/h (0 Bft)
20.07.2013 05:24 14,8 C 13,4 C 91 % 1021,7 hPa 0,0 l/m 0 min 0 min 0,0 UV-I 0 W/m 0,0 km/h (0 Bft)
20.07.2013 05:26 14,8 C 13,4 C 91 % 1021,8 hPa 0,0 l/m 0 min 0 min 0,0 UV-I 0 W/m 0,0 km/h (0 Bft)
20.07.2013 05:28 14,8 C 13,4 C 91 % 1021,7 hPa 0,0 l/m 0 min 0 min 0,0 UV-I 0 W/m 0,0 km/h (0 Bft)
20.07.2013 05:30 14,7 C 13,4 C 91 % 1021,7 hPa 0,0 l/m 0 min 0 min 0,0 UV-I 0 W/m 0,0 km/h (0 Bft)
20.07.2013 05:32 14,7 C 13,4 C 91 % 1021,8 hPa 0,0 l/m 0 min 0 min 0,0 UV-I 0 W/m 0,0 km/h (0 Bft)
20.07.2013 05:34 14,7 C 13,4 C 92 % 1021,8 hPa 0,0 l/m 0 min 0 min 0,0 UV-I 0 W/m 0,0 km/h (0 Bft)
20.07.2013 05:36 14,7 C 13,4 C 92 % 1021,8 hPa 0,0 l/m 0 min 0 min 0,0 UV-I 0 W/m 0,0 km/h (0 Bft)
20.07.2013 05:38 14,7 C 13,4 C 92 % 1021,8 hPa 0,0 l/m 0 min 0 min 0,0 UV-I 0 W/m 0,0 km/h (0 Bft)
20.07.2013 05:40 14,7 C 13,4 C 92 % 1021,8 hPa 0,0 l/m 0 min 0 min 0,0 UV-I 0 W/m 0,0 km/h (0 Bft)
20.07.2013 05:42 14,7 C 13,4 C 92 % 1021,8 hPa 0,0 l/m 0 min 0 min 0,0 UV-I 0 W/m 0,0 km/h (0 Bft)
20.07.2013 05:44 14,7 C 13,4 C 92 % 1021,8 hPa 0,0 l/m 0 min 0 min 0,0 UV-I 5 W/m 0,0 km/h (0 Bft)
20.07.2013 05:46 14,6 C 13,4 C 92 % 1021,7 hPa 0,0 l/m 0 min 0 min 0,0 UV-I 5 W/m 0,0 km/h (0 Bft)
20.07.2013 05:48 14,6 C 13,4 C 92 % 1021,7 hPa 0,0 l/m 0 min 0 min 0,0 UV-I 5 W/m 0,0 km/h (0 Bft)
20.07.2013 05:50 14,6 C 13,4 C 92 % 1021,8 hPa 0,0 l/m 0 min 0 min 0,0 UV-I 5 W/m 0,0 km/h (0 Bft)
20.07.2013 05:52 14,6 C 13,4 C 92 % 1021,7 hPa 0,0 l/m 0 min 0 min 0,0 UV-I 7 W/m 0,0 km/h (0 Bft)
20.07.2013 05:54 14,6 C 13,4 C 92 % 1021,8 hPa 0,0 l/m 0 min 0 min 0,0 UV-I 7 W/m 0,0 km/h (0 Bft)
20.07.2013 05:56 14,6 C 13,4 C 92 % 1021,7 hPa 0,0 l/m 0 min 0 min 0,0 UV-I 9 W/m 0,0 km/h (0 Bft)
20.07.2013 05:58 14,6 C 13,4 C 92 % 1021,8 hPa 0,0 l/m 0 min 0 min 0,0 UV-I 9 W/m 0,0 km/h (0 Bft)
20.07.2013 06:00 14,6 C 13,4 C 92 % 1021,8 hPa 0,0 l/m 0 min 0 min 0,0 UV-I 9 W/m 0,0 km/h (0 Bft)
20.07.2013 06:02 14,5 C 13,4 C 92 % 1021,8 hPa 0,0 l/m 0 min 0 min 0,0 UV-I 9 W/m 0,0 km/h (0 Bft)
20.07.2013 06:06 14,5 C 13,4 C 92 % 1021,7 hPa 0,0 l/m 0 min 0 min 0,0 UV-I 12 W/m 0,0 km/h (0 Bft)
20.07.2013 06:08 14,5 C 13,4 C 92 % 1021,7 hPa 0,0 l/m 0 min 0 min 0,0 UV-I 12 W/m 0,0 km/h (0 Bft)
20.07.2013 06:10 14,5 C 13,4 C 92 % 1021,7 hPa 0,0 l/m 0 min 0 min 0,0 UV-I 16 W/m 0,0 km/h (0 Bft)
20.07.2013 06:12 14,5 C 13,4 C 92 % 1021,7 hPa 0,0 l/m 0 min 0 min 0,0 UV-I 16 W/m 0,0 km/h (0 Bft)
20.07.2013 06:14 14,5 C 14,0 C 92 % 1021,6 hPa 0,0 l/m 0 min 0 min 0,0 UV-I 18 W/m 0,0 km/h (0 Bft)
20.07.2013 06:16 14,5 C 14,0 C 92 % 1021,6 hPa 0,0 l/m 0 min 0 min 0,0 UV-I 21 W/m 0,0 km/h (0 Bft)
20.07.2013 06:18 14,5 C 14,0 C 92 % 1021,6 hPa 0,0 l/m 0 min 0 min 0,0 UV-I 26 W/m 0,0 km/h (0 Bft)
20.07.2013 06:20 14,5 C 14,0 C 92 % 1021,6 hPa 0,0 l/m 0 min 0 min 0,0 UV-I 30 W/m 0,0 km/h (0 Bft)
20.07.2013 06:22 14,5 C 14,0 C 92 % 1021,7 hPa 0,0 l/m 0 min 0 min 0,0 UV-I 30 W/m 0,0 km/h (0 Bft)
20.07.2013 06:24 14,5 C 14,0 C 93 % 1021,7 hPa 0,0 l/m 0 min 0 min 0,0 UV-I 28 W/m 0,0 km/h (0 Bft)
20.07.2013 06:26 14,5 C 14,0 C 93 % 1021,7 hPa 0,0 l/m 0 min 0 min 0,0 UV-I 26 W/m 0,0 km/h (0 Bft)
20.07.2013 06:28 14,5 C 14,0 C 93 % 1021,7 hPa 0,0 l/m 0 min 0 min 0,0 UV-I 30 W/m 0,0 km/h (0 Bft)
20.07.2013 06:30 14,5 C 14,0 C 93 % 1021,7 hPa 0,0 l/m 0 min 0 min 0,0 UV-I 28 W/m 0,0 km/h (0 Bft)
20.07.2013 06:32 14,5 C 14,0 C 93 % 1021,7 hPa 0,0 l/m 0 min 0 min 0,0 UV-I 28 W/m 0,0 km/h (0 Bft)
20.07.2013 06:34 14,6 C 14,0 C 93 % 1021,7 hPa 0,0 l/m 0 min 0 min 0,0 UV-I 26 W/m 0,0 km/h (0 Bft)
20.07.2013 06:36 14,6 C 14,0 C 93 % 1021,7 hPa 0,0 l/m 0 min 0 min 0,0 UV-I 26 W/m 0,0 km/h (0 Bft)
20.07.2013 06:38 14,6 C 13,4 C 93 % 1021,7 hPa 0,0 l/m 0 min 0 min 0,0 UV-I 28 W/m 0,0 km/h (0 Bft)
20.07.2013 06:40 14,6 C 13,4 C 93 % 1021,7 hPa 0,0 l/m 0 min 0 min 0,0 UV-I 26 W/m 0,0 km/h (0 Bft)
20.07.2013 06:42 14,6 C 13,4 C 93 % 1021,8 hPa 0,0 l/m 0 min 0 min 0,0 UV-I 28 W/m 0,0 km/h (0 Bft)
20.07.2013 06:44 14,6 C 14,0 C 93 % 1021,8 hPa 0,0 l/m 0 min 0 min 0,0 UV-I 30 W/m 0,0 km/h (0 Bft)
20.07.2013 06:46 14,6 C 13,4 C 93 % 1021,8 hPa 0,0 l/m 0 min 0 min 0,0 UV-I 30 W/m 0,0 km/h (0 Bft)
20.07.2013 06:48 14,6 C 13,4 C 93 % 1021,8 hPa 0,0 l/m 0 min 0 min 0,0 UV-I 33 W/m 0,0 km/h (0 Bft)
20.07.2013 06:50 14,6 C 13,4 C 93 % 1021,9 hPa 0,0 l/m 0 min 0 min 0,0 UV-I 37 W/m 0,0 km/h (0 Bft)
20.07.2013 06:52 14,6 C 14,0 C 93 % 1021,8 hPa 0,0 l/m 0 min 0 min 0,0 UV-I 37 W/m 0,0 km/h (0 Bft)
20.07.2013 06:54 14,6 C 14,0 C 93 % 1021,8 hPa 0,0 l/m 0 min 0 min 0,0 UV-I 37 W/m 0,0 km/h (0 Bft)
20.07.2013 06:56 14,6 C 14,0 C 93 % 1021,8 hPa 0,0 l/m 0 min 0 min 0,0 UV-I 35 W/m 0,0 km/h (0 Bft)
20.07.2013 06:58 14,6 C 14,0 C 93 % 1021,8 hPa 0,0 l/m 0 min 0 min 0,0 UV-I 35 W/m 0,0 km/h (0 Bft)
20.07.2013 07:00 14,6 C 14,0 C 93 % 1021,8 hPa 0,0 l/m 0 min 0 min 0,0 UV-I 35 W/m 0,0 km/h (0 Bft)
20.07.2013 07:02 14,6 C 14,0 C 93 % 1021,8 hPa 0,0 l/m 0 min 0 min 0,0 UV-I 37 W/m 0,0 km/h (0 Bft)
20.07.2013 07:06 14,7 C 14,6 C 94 % 1021,8 hPa 0,0 l/m 0 min 0 min 0,0 UV-I 39 W/m 0,0 km/h (0 Bft)
20.07.2013 07:08 14,8 C 14,6 C 94 % 1021,8 hPa 0,0 l/m 0 min 0 min 0,0 UV-I 40 W/m 0,0 km/h (0 Bft)
20.07.2013 07:10 14,8 C 14,6 C 94 % 1021,8 hPa 0,0 l/m 0 min 0 min 0,0 UV-I 40 W/m 2,6 km/h (1 Bft)
20.07.2013 07:12 14,9 C 14,6 C 94 % 1021,8 hPa 0,0 l/m 0 min 0 min 0,0 UV-I 42 W/m 0,0 km/h (0 Bft)
20.07.2013 07:14 14,9 C 14,6 C 94 % 1021,8 hPa 0,0 l/m 0 min 0 min 0,0 UV-I 42 W/m 0,0 km/h (0 Bft)
20.07.2013 07:16 15,0 C 14,6 C 94 % 1021,8 hPa 0,0 l/m 0 min 0 min 0,0 UV-I 44 W/m 5,1 km/h (1 Bft)
20.07.2013 07:18 15,1 C 14,6 C 94 % 1021,7 hPa 0,0 l/m 0 min 0 min 0,0 UV-I 42 W/m 5,1 km/h (1 Bft)
20.07.2013 07:20 15,1 C 15,1 C 94 % 1021,7 hPa 0,0 l/m 0 min 0 min 0,0 UV-I 42 W/m 10,3 km/h (2 Bft)
20.07.2013 07:22 15,2 C 15,1 C 94 % 1021,6 hPa 0,0 l/m 0 min 0 min 0,0 UV-I 42 W/m 7,7 km/h (2 Bft)
20.07.2013 07:24 15,2 C 15,1 C 94 % 1021,6 hPa 0,0 l/m 0 min 0 min 0,0 UV-I 44 W/m 5,1 km/h (1 Bft)
20.07.2013 07:26 15,3 C 15,1 C 94 % 1021,5 hPa 0,0 l/m 0 min 0 min 0,0 UV-I 44 W/m 5,1 km/h (1 Bft)
20.07.2013 07:28 15,3 C 15,1 C 94 % 1021,6 hPa 0,0 l/m 0 min 0 min 0,0 UV-I 44 W/m 0,0 km/h (0 Bft)
20.07.2013 07:30 15,3 C 15,1 C 94 % 1021,6 hPa 0,0 l/m 0 min 0 min 0,0 UV-I 46 W/m 7,7 km/h (2 Bft)
20.07.2013 07:32 15,4 C 15,1 C 94 % 1021,5 hPa 0,0 l/m 0 min 0 min 0,0 UV-I 46 W/m 10,3 km/h (2 Bft)
20.07.2013 07:34 15,5 C 15,1 C 94 % 1021,6 hPa 0,0 l/m 0 min 0 min 0,0 UV-I 47 W/m 10,3 km/h (2 Bft)
20.07.2013 07:36 15,6 C 15,1 C 94 % 1021,6 hPa 0,0 l/m 0 min 0 min 0,0 UV-I 47 W/m 7,7 km/h (2 Bft)
20.07.2013 07:38 15,7 C 15,1 C 94 % 1021,6 hPa 0,0 l/m 0 min 0 min 0,0 UV-I 49 W/m 2,6 km/h (1 Bft)
20.07.2013 07:40 15,7 C 15,7 C 94 % 1021,6 hPa 0,0 l/m 0 min 0 min 0,0 UV-I 49 W/m 5,1 km/h (1 Bft)
20.07.2013 07:42 15,8 C 15,7 C 94 % 1021,6 hPa 0,0 l/m 0 min 0 min 0,0 UV-I 51 W/m 2,6 km/h (1 Bft)
20.07.2013 07:44 15,8 C 15,7 C 94 % 1021,6 hPa 0,0 l/m 0 min 0 min 0,0 UV-I 54 W/m 0,0 km/h (0 Bft)
20.07.2013 07:46 15,9 C 15,7 C 94 % 1021,7 hPa 0,0 l/m 0 min 0 min 0,0 UV-I 56 W/m 2,6 km/h (1 Bft)
20.07.2013 07:48 15,9 C 15,7 C 94 % 1021,6 hPa 0,0 l/m 0 min 0 min 0,0 UV-I 56 W/m 5,1 km/h (1 Bft)
20.07.2013 07:50 16,0 C 15,7 C 94 % 1021,6 hPa 0,0 l/m 0 min 0 min 0,0 UV-I 58 W/m 5,1 km/h (1 Bft)
20.07.2013 07:52 16,1 C 15,7 C 93 % 1021,6 hPa 0,0 l/m 0 min 0 min 0,0 UV-I 60 W/m 10,3 km/h (2 Bft)
20.07.2013 07:54 16,1 C 15,7 C 93 % 1021,6 hPa 0,0 l/m 0 min 0 min 0,0 UV-I 62 W/m 12,9 km/h (3 Bft)
20.07.2013 07:56 16,2 C 15,7 C 93 % 1021,6 hPa 0,0 l/m 0 min 0 min 0,0 UV-I 65 W/m 10,3 km/h (2 Bft)
20.07.2013 07:58 16,2 C 15,7 C 93 % 1021,6 hPa 0,0 l/m 0 min 0 min 0,0 UV-I 65 W/m 12,9 km/h (3 Bft)
20.07.2013 08:00 16,3 C 16,2 C 93 % 1021,6 hPa 0,0 l/m 0 min 0 min 0,0 UV-I 67 W/m 2,6 km/h (1 Bft)
20.07.2013 08:02 16,3 C 16,2 C 93 % 1021,7 hPa 0,0 l/m 0 min 0 min 0,0 UV-I 69 W/m 7,7 km/h (2 Bft)
20.07.2013 08:06 16,5 C 16,2 C 92 % 1021,6 hPa 0,0 l/m 2 min 0 min 0,0 UV-I 225 W/m 7,7 km/h (2 Bft)
20.07.2013 08:08 16,6 C 16,2 C 92 % 1021,6 hPa 0,0 l/m 2 min 0 min 0,0 UV-I 237 W/m 12,9 km/h (3 Bft)
20.07.2013 08:10 16,7 C 16,2 C 92 % 1021,7 hPa 0,0 l/m 2 min 0 min 0,0 UV-I 234 W/m 15,4 km/h (3 Bft)
20.07.2013 08:12 16,7 C 16,2 C 92 % 1021,6 hPa 0,0 l/m 2 min 0 min 0,0 UV-I 236 W/m 5,1 km/h (1 Bft)
20.07.2013 08:14 16,7 C 16,2 C 91 % 1021,6 hPa 0,0 l/m 2 min 0 min 0,0 UV-I 243 W/m 15,4 km/h (3 Bft)
20.07.2013 08:16 16,8 C 16,8 C 91 % 1021,7 hPa 0,0 l/m 2 min 0 min 0,0 UV-I 250 W/m 7,7 km/h (2 Bft)
20.07.2013 08:18 16,9 C 16,8 C 91 % 1021,6 hPa 0,0 l/m 2 min 0 min 0,0 UV-I 260 W/m 10,3 km/h (2 Bft)
20.07.2013 08:20 16,9 C 16,8 C 91 % 1021,7 hPa 0,0 l/m 2 min 0 min 0,0 UV-I 236 W/m 7,7 km/h (2 Bft)
20.07.2013 08:22 17,0 C 16,8 C 90 % 1021,6 hPa 0,0 l/m 2 min 0 min 0,0 UV-I 260 W/m 7,7 km/h (2 Bft)
20.07.2013 08:24 17,1 C 16,8 C 90 % 1021,6 hPa 0,0 l/m 0 min 0 min 0,0 UV-I 81 W/m 10,3 km/h (2 Bft)
20.07.2013 08:26 17,1 C 16,8 C 90 % 1021,6 hPa 0,0 l/m 2 min 0 min 0,0 UV-I 253 W/m 2,6 km/h (1 Bft)
20.07.2013 08:28 17,2 C 16,8 C 90 % 1021,6 hPa 0,0 l/m 0 min 0 min 0,0 UV-I 81 W/m 10,3 km/h (2 Bft)
20.07.2013 08:30 17,2 C 16,8 C 89 % 1021,6 hPa 0,0 l/m 0 min 0 min 0,0 UV-I 90 W/m 10,3 km/h (2 Bft)
20.07.2013 08:32 17,2 C 16,8 C 89 % 1021,6 hPa 0,0 l/m 0 min 0 min 0,0 UV-I 100 W/m 10,3 km/h (2 Bft)
20.07.2013 08:34 17,3 C 16,8 C 89 % 1021,6 hPa 0,0 l/m 0 min 0 min 0,0 UV-I 109 W/m 10,3 km/h (2 Bft)
20.07.2013 08:36 17,3 C 16,8 C 88 % 1021,6 hPa 0,0 l/m 0 min 0 min 0,0 UV-I 104 W/m 5,1 km/h (1 Bft)
20.07.2013 08:38 17,3 C 16,8 C 88 % 1021,6 hPa 0,0 l/m 0 min 0 min 0,0 UV-I 120 W/m 2,6 km/h (1 Bft)
20.07.2013 08:40 17,4 C 16,8 C 88 % 1021,6 hPa 0,0 l/m 0 min 0 min 0,0 UV-I 104 W/m 2,6 km/h (1 Bft)
20.07.2013 08:42 17,4 C 16,8 C 88 % 1021,5 hPa 0,0 l/m 0 min 0 min 0,0 UV-I 107 W/m 0,0 km/h (0 Bft)
20.07.2013 08:44 17,5 C 17,3 C 88 % 1021,5 hPa 0,0 l/m 0 min 0 min 0,0 UV-I 146 W/m 0,0 km/h (0 Bft)
20.07.2013 08:46 17,5 C 17,3 C 88 % 1021,5 hPa 0,0 l/m 0 min 0 min 0,0 UV-I 149 W/m 0,0 km/h (0 Bft)
20.07.2013 08:48 17,6 C 17,3 C 88 % 1021,5 hPa 0,0 l/m 0 min 0 min 0,0 UV-I 148 W/m 2,6 km/h (1 Bft)
20.07.2013 08:50 17,6 C 17,3 C 88 % 1021,5 hPa 0,0 l/m 0 min 0 min 0,0 UV-I 135 W/m 0,0 km/h (0 Bft)
20.07.2013 08:52 17,7 C 17,3 C 87 % 1021,6 hPa 0,0 l/m 0 min 0 min 0,0 UV-I 146 W/m 12,9 km/h (3 Bft)
20.07.2013 08:54 17,7 C 17,3 C 86 % 1021,6 hPa 0,0 l/m 0 min 0 min 0,0 UV-I 244 W/m 15,4 km/h (3 Bft)
20.07.2013 08:56 17,8 C 17,9 C 86 % 1021,6 hPa 0,0 l/m 0 min 0 min 0,0 UV-I 244 W/m 12,9 km/h (3 Bft)
20.07.2013 08:58 17,8 C 17,9 C 86 % 1021,6 hPa 0,0 l/m 0 min 0 min 0,0 UV-I 229 W/m 10,3 km/h (2 Bft)
20.07.2013 09:00 17,9 C 17,9 C 85 % 1021,6 hPa 0,0 l/m 0 min 0 min 0,0 UV-I 202 W/m 7,7 km/h (2 Bft)
20.07.2013 09:02 18,0 C 18,4 C 85 % 1021,6 hPa 0,0 l/m 0 min 0 min 0,0 UV-I 192 W/m 7,7 km/h (2 Bft)
20.07.2013 09:06 18,1 C 18,4 C 85 % 1021,6 hPa 0,0 l/m 0 min 0 min 0,0 UV-I 230 W/m 5,1 km/h (1 Bft)
20.07.2013 09:08 18,2 C 19,0 C 85 % 1021,6 hPa 0,0 l/m 0 min 0 min 0,0 UV-I 230 W/m 0,0 km/h (0 Bft)
20.07.2013 09:10 18,3 C 19,0 C 85 % 1021,7 hPa 0,0 l/m 0 min 0 min 0,0 UV-I 192 W/m 10,3 km/h (2 Bft)
20.07.2013 09:12 18,4 C 18,4 C 84 % 1021,7 hPa 0,0 l/m 0 min 0 min 0,0 UV-I 181 W/m 10,3 km/h (2 Bft)
20.07.2013 09:14 18,4 C 18,4 C 84 % 1021,7 hPa 0,0 l/m 0 min 0 min 0,0 UV-I 185 W/m 7,7 km/h (2 Bft)
20.07.2013 09:16 18,5 C 18,4 C 83 % 1021,7 hPa 0,0 l/m 0 min 0 min 0,0 UV-I 216 W/m 12,9 km/h (3 Bft)
20.07.2013 09:18 18,6 C 18,4 C 83 % 1021,7 hPa 0,0 l/m 0 min 0 min 0,5 UV-I 234 W/m 10,3 km/h (2 Bft)
20.07.2013 09:20 18,6 C 18,4 C 82 % 1021,7 hPa 0,0 l/m 2 min 0 min 0,7 UV-I 295 W/m 18,0 km/h (3 Bft)
20.07.2013 09:22 18,6 C 18,4 C 82 % 1021,7 hPa 0,0 l/m 0 min 0 min 0,5 UV-I 214 W/m 12,9 km/h (3 Bft)
20.07.2013 09:24 18,6 C 18,4 C 82 % 1021,7 hPa 0,0 l/m 2 min 0 min 0,7 UV-I 301 W/m 15,4 km/h (3 Bft)
20.07.2013 09:26 18,6 C 18,4 C 81 % 1021,7 hPa 0,0 l/m 0 min 0 min 0,5 UV-I 200 W/m 10,3 km/h (2 Bft)
20.07.2013 09:28 18,6 C 18,4 C 81 % 1021,7 hPa 0,0 l/m 0 min 0 min 0,0 UV-I 199 W/m 7,7 km/h (2 Bft)
20.07.2013 09:30 18,6 C 18,4 C 81 % 1021,7 hPa 0,0 l/m 0 min 0 min 0,0 UV-I 197 W/m 20,6 km/h (4 Bft)
20.07.2013 09:32 18,6 C 18,4 C 80 % 1021,7 hPa 0,0 l/m 0 min 0 min 0,0 UV-I 200 W/m 20,6 km/h (4 Bft)
20.07.2013 09:34 18,6 C 18,4 C 80 % 1021,7 hPa 0,0 l/m 0 min 0 min 0,0 UV-I 204 W/m 10,3 km/h (2 Bft)
20.07.2013 09:36 18,6 C 18,4 C 80 % 1021,7 hPa 0,0 l/m 0 min 0 min 0,0 UV-I 206 W/m 15,4 km/h (3 Bft)
20.07.2013 09:38 18,6 C 18,4 C 80 % 1021,7 hPa 0,0 l/m 0 min 0 min 0,0 UV-I 209 W/m 10,3 km/h (2 Bft)
20.07.2013 09:40 18,6 C 18,4 C 80 % 1021,7 hPa 0,0 l/m 0 min 0 min 0,0 UV-I 209 W/m 12,9 km/h (3 Bft)
20.07.2013 09:42 18,6 C 18,4 C 79 % 1021,7 hPa 0,0 l/m 0 min 0 min 0,6 UV-I 223 W/m 10,3 km/h (2 Bft)
20.07.2013 09:44 18,7 C 19,0 C 80 % 1021,7 hPa 0,0 l/m 0 min 0 min 0,6 UV-I 236 W/m 2,6 km/h (1 Bft)
20.07.2013 09:46 18,7 C 19,0 C 79 % 1021,7 hPa 0,0 l/m 0 min 0 min 0,7 UV-I 257 W/m 15,4 km/h (3 Bft)
20.07.2013 09:48 18,7 C 19,0 C 79 % 1021,8 hPa 0,0 l/m 0 min 0 min 0,6 UV-I 253 W/m 15,4 km/h (3 Bft)
20.07.2013 09:50 18,8 C 19,0 C 79 % 1021,8 hPa 0,0 l/m 0 min 0 min 0,6 UV-I 243 W/m 12,9 km/h (3 Bft)
20.07.2013 09:52 18,8 C 19,0 C 79 % 1021,8 hPa 0,0 l/m 0 min 0 min 0,6 UV-I 241 W/m 18,0 km/h (3 Bft)
20.07.2013 09:54 18,8 C 19,0 C 79 % 1021,8 hPa 0,0 l/m 0 min 0 min 0,5 UV-I 232 W/m 10,3 km/h (2 Bft)
20.07.2013 09:56 18,8 C 19,0 C 79 % 1021,8 hPa 0,0 l/m 0 min 0 min 0,5 UV-I 218 W/m 12,9 km/h (3 Bft)
20.07.2013 09:58 18,9 C 19,0 C 79 % 1021,8 hPa 0,0 l/m 0 min 0 min 0,5 UV-I 206 W/m 10,3 km/h (2 Bft)
20.07.2013 10:00 18,9 C 19,0 C 79 % 1021,8 hPa 0,0 l/m 0 min 0 min 0,0 UV-I 202 W/m 5,1 km/h (1 Bft)
20.07.2013 10:02 18,9 C 19,0 C 79 % 1021,8 hPa 0,0 l/m 0 min 0 min 0,0 UV-I 190 W/m 12,9 km/h (3 Bft)
20.07.2013 10:06 18,9 C 19,0 C 78 % 1021,8 hPa 0,0 l/m 0 min 0 min 0,0 UV-I 178 W/m 12,9 km/h (3 Bft)
20.07.2013 10:08 18,9 C 18,4 C 78 % 1021,9 hPa 0,0 l/m 0 min 0 min 0,0 UV-I 179 W/m 15,4 km/h (3 Bft)
20.07.2013 10:10 18,9 C 18,4 C 78 % 1021,9 hPa 0,0 l/m 0 min 0 min 0,0 UV-I 179 W/m 10,3 km/h (2 Bft)
20.07.2013 10:12 18,9 C 19,0 C 78 % 1021,9 hPa 0,0 l/m 0 min 0 min 0,0 UV-I 183 W/m 0,0 km/h (0 Bft)
20.07.2013 10:14 18,9 C 19,0 C 78 % 1021,9 hPa 0,0 l/m 0 min 0 min 0,0 UV-I 185 W/m 0,0 km/h (0 Bft)
20.07.2013 10:16 18,9 C 19,0 C 78 % 1021,9 hPa 0,0 l/m 0 min 0 min 0,5 UV-I 197 W/m 10,3 km/h (2 Bft)
20.07.2013 10:18 18,9 C 19,0 C 78 % 1021,8 hPa 0,0 l/m 0 min 0 min 0,6 UV-I 216 W/m 12,9 km/h (3 Bft)
20.07.2013 10:20 18,9 C 19,0 C 78 % 1021,8 hPa 0,0 l/m 0 min 0 min 0,7 UV-I 236 W/m 12,9 km/h (3 Bft)
20.07.2013 10:22 18,9 C 19,0 C 78 % 1021,9 hPa 0,0 l/m 0 min 0 min 0,7 UV-I 232 W/m 12,9 km/h (3 Bft)
20.07.2013 10:24 18,9 C 19,0 C 78 % 1021,9 hPa 0,0 l/m 0 min 0 min 0,7 UV-I 230 W/m 12,9 km/h (3 Bft)
20.07.2013 10:26 19,0 C 19,0 C 78 % 1021,9 hPa 0,0 l/m 0 min 0 min 0,7 UV-I 227 W/m 10,3 km/h (2 Bft)
20.07.2013 10:28 19,0 C 19,0 C 78 % 1021,9 hPa 0,0 l/m 0 min 0 min 0,7 UV-I 220 W/m 18,0 km/h (3 Bft)
20.07.2013 10:30 19,1 C 19,0 C 78 % 1021,9 hPa 0,0 l/m 0 min 0 min 0,7 UV-I 209 W/m 18,0 km/h (3 Bft)
20.07.2013 10:32 19,1 C 19,6 C 79 % 1021,9 hPa 0,0 l/m 0 min 0 min 0,6 UV-I 197 W/m 5,1 km/h (1 Bft)
20.07.2013 10:34 19,1 C 19,0 C 78 % 1021,9 hPa 0,0 l/m 0 min 0 min 0,5 UV-I 188 W/m 15,4 km/h (3 Bft)
20.07.2013 10:36 19,1 C 19,0 C 79 % 1021,9 hPa 0,0 l/m 0 min 0 min 0,5 UV-I 185 W/m 0,0 km/h (0 Bft)
20.07.2013 10:38 19,1 C 19,0 C 79 % 1021,9 hPa 0,0 l/m 0 min 0 min 0,5 UV-I 174 W/m 5,1 km/h (1 Bft)
20.07.2013 10:40 19,1 C 19,0 C 79 % 1022,0 hPa 0,0 l/m 0 min 0 min 0,0 UV-I 167 W/m 18,0 km/h (3 Bft)
20.07.2013 10:42 19,1 C 19,0 C 79 % 1022,0 hPa 0,0 l/m 0 min 0 min 0,5 UV-I 172 W/m 10,3 km/h (2 Bft)
20.07.2013 10:44 19,1 C 19,0 C 79 % 1022,0 hPa 0,0 l/m 0 min 0 min 0,5 UV-I 179 W/m 18,0 km/h (3 Bft)
20.07.2013 10:46 19,1 C 19,0 C 79 % 1022,0 hPa 0,0 l/m 0 min 0 min 0,6 UV-I 192 W/m 10,3 km/h (2 Bft)
20.07.2013 10:48 19,1 C 19,0 C 79 % 1022,1 hPa 0,0 l/m 0 min 0 min 0,7 UV-I 204 W/m 12,9 km/h (3 Bft)
20.07.2013 10:50 19,1 C 19,0 C 79 % 1022,1 hPa 0,0 l/m 0 min 0 min 0,7 UV-I 213 W/m 10,3 km/h (2 Bft)
20.07.2013 10:52 19,1 C 19,0 C 79 % 1022,0 hPa 0,0 l/m 0 min 0 min 0,7 UV-I 213 W/m 10,3 km/h (2 Bft)
20.07.2013 10:54 19,1 C 19,6 C 79 % 1022,1 hPa 0,0 l/m 0 min 0 min 0,7 UV-I 200 W/m 7,7 km/h (2 Bft)
20.07.2013 10:56 19,1 C 19,6 C 79 % 1022,2 hPa 0,0 l/m 0 min 0 min 0,6 UV-I 186 W/m 12,9 km/h (3 Bft)
20.07.2013 10:58 19,2 C 19,6 C 79 % 1022,2 hPa 0,0 l/m 0 min 0 min 0,6 UV-I 183 W/m 12,9 km/h (3 Bft)
20.07.2013 11:00 19,1 C 19,0 C 78 % 1022,2 hPa 0,0 l/m 0 min 0 min 0,6 UV-I 185 W/m 12,9 km/h (3 Bft)
20.07.2013 11:02 19,2 C 19,6 C 79 % 1022,2 hPa 0,0 l/m 0 min 0 min 0,6 UV-I 193 W/m 2,6 km/h (1 Bft)
20.07.2013 11:06 19,2 C 19,0 C 78 % 1022,2 hPa 0,0 l/m 0 min 0 min 0,8 UV-I 209 W/m 15,4 km/h (3 Bft)
20.07.2013 11:08 19,2 C 19,6 C 78 % 1022,2 hPa 0,0 l/m 0 min 0 min 0,8 UV-I 211 W/m 7,7 km/h (2 Bft)
20.07.2013 11:10 19,2 C 19,0 C 78 % 1022,2 hPa 0,0 l/m 0 min 0 min 0,8 UV-I 218 W/m 18,0 km/h (3 Bft)
20.07.2013 11:12 19,2 C 19,6 C 78 % 1022,1 hPa 0,0 l/m 0 min 0 min 0,8 UV-I 216 W/m 7,7 km/h (2 Bft)
20.07.2013 11:14 19,3 C 19,6 C 79 % 1022,2 hPa 0,0 l/m 0 min 0 min 0,8 UV-I 207 W/m 0,0 km/h (0 Bft)
20.07.2013 11:16 19,3 C 19,6 C 78 % 1022,1 hPa 0,0 l/m 0 min 0 min 0,8 UV-I 204 W/m 2,6 km/h (1 Bft)
20.07.2013 11:18 19,3 C 19,6 C 78 % 1022,1 hPa 0,0 l/m 0 min 0 min 0,7 UV-I 199 W/m 10,3 km/h (2 Bft)
20.07.2013 11:20 19,3 C 19,6 C 77 % 1022,1 hPa 0,0 l/m 0 min 0 min 0,7 UV-I 192 W/m 12,9 km/h (3 Bft)
20.07.2013 11:22 19,3 C 19,6 C 77 % 1022,1 hPa 0,0 l/m 0 min 0 min 0,7 UV-I 190 W/m 7,7 km/h (2 Bft)
20.07.2013 11:24 19,4 C 19,6 C 78 % 1022,2 hPa 0,0 l/m 0 min 0 min 0,8 UV-I 197 W/m 0,0 km/h (0 Bft)
20.07.2013 11:26 19,4 C 19,6 C 78 % 1022,2 hPa 0,0 l/m 0 min 0 min 0,7 UV-I 193 W/m 7,7 km/h (2 Bft)
20.07.2013 11:28 19,4 C 19,6 C 77 % 1022,3 hPa 0,0 l/m 0 min 0 min 0,7 UV-I 183 W/m 15,4 km/h (3 Bft)
20.07.2013 11:30 19,4 C 19,6 C 77 % 1022,3 hPa 0,0 l/m 0 min 0 min 0,6 UV-I 176 W/m 10,3 km/h (2 Bft)
20.07.2013 11:32 19,4 C 19,6 C 77 % 1022,2 hPa 0,0 l/m 0 min 0 min 0,6 UV-I 169 W/m 0,0 km/h (0 Bft)
20.07.2013 11:34 19,5 C 19,6 C 78 % 1022,2 hPa 0,0 l/m 0 min 0 min 0,6 UV-I 165 W/m 2,6 km/h (1 Bft)
20.07.2013 11:36 19,5 C 19,6 C 78 % 1022,2 hPa 0,0 l/m 0 min 0 min 0,5 UV-I 162 W/m 0,0 km/h (0 Bft)
20.07.2013 11:38 19,5 C 19,6 C 77 % 1022,2 hPa 0,0 l/m 0 min 0 min 0,5 UV-I 163 W/m 0,0 km/h (0 Bft)
20.07.2013 11:40 19,6 C 19,6 C 77 % 1022,3 hPa 0,0 l/m 0 min 0 min 0,6 UV-I 167 W/m 10,3 km/h (2 Bft)
20.07.2013 11:42 19,5 C 19,6 C 77 % 1022,3 hPa 0,0 l/m 0 min 0 min 0,6 UV-I 171 W/m 12,9 km/h (3 Bft)
20.07.2013 11:44 19,5 C 19,6 C 77 % 1022,4 hPa 0,0 l/m 0 min 0 min 0,7 UV-I 178 W/m 12,9 km/h (3 Bft)
20.07.2013 11:46 19,6 C 19,6 C 77 % 1022,4 hPa 0,0 l/m 0 min 0 min 0,7 UV-I 183 W/m 10,3 km/h (2 Bft)
20.07.2013 11:48 19,5 C 19,6 C 77 % 1022,4 hPa 0,0 l/m 0 min 0 min 0,7 UV-I 183 W/m 10,3 km/h (2 Bft)
20.07.2013 11:50 19,6 C 19,6 C 77 % 1022,4 hPa 0,0 l/m 0 min 0 min 0,7 UV-I 185 W/m 2,6 km/h (1 Bft)
20.07.2013 11:52 19,6 C 19,6 C 77 % 1022,3 hPa 0,0 l/m 0 min 0 min 0,8 UV-I 193 W/m 2,6 km/h (1 Bft)
20.07.2013 11:54 19,6 C 19,6 C 77 % 1022,2 hPa 0,0 l/m 0 min 0 min 0,9 UV-I 200 W/m 10,3 km/h (2 Bft)
20.07.2013 11:56 19,6 C 19,6 C 77 % 1022,2 hPa 0,0 l/m 0 min 0 min 0,9 UV-I 207 W/m 10,3 km/h (2 Bft)
20.07.2013 11:58 19,6 C 20,1 C 78 % 1022,2 hPa 0,0 l/m 0 min 0 min 1,0 UV-I 218 W/m 10,3 km/h (2 Bft)
20.07.2013 12:00 19,6 C 20,1 C 78 % 1022,2 hPa 0,0 l/m 0 min 0 min 1,0 UV-I 225 W/m 0,0 km/h (0 Bft)
20.07.2013 12:02 19,7 C 20,1 C 78 % 1022,2 hPa 0,0 l/m 0 min 0 min 1,2 UV-I 243 W/m 2,6 km/h (1 Bft)
20.07.2013 12:06 19,7 C 20,1 C 76 % 1022,1 hPa 0,0 l/m 0 min 0 min 1,4 UV-I 271 W/m 10,3 km/h (2 Bft)
20.07.2013 12:08 19,7 C 20,1 C 76 % 1022,0 hPa 0,0 l/m 0 min 0 min 1,5 UV-I 290 W/m 10,3 km/h (2 Bft)
20.07.2013 12:10 19,7 C 20,1 C 76 % 1022,0 hPa 0,0 l/m 0 min 0 min 1,6 UV-I 304 W/m 10,3 km/h (2 Bft)
20.07.2013 12:12 19,7 C 20,1 C 76 % 1022,0 hPa 0,0 l/m 0 min 0 min 1,7 UV-I 318 W/m 10,3 km/h (2 Bft)
20.07.2013 12:14 19,8 C 20,7 C 76 % 1022,0 hPa 0,0 l/m 0 min 0 min 1,7 UV-I 318 W/m 5,1 km/h (1 Bft)
20.07.2013 12:16 19,8 C 20,7 C 76 % 1022,0 hPa 0,0 l/m 0 min 0 min 1,7 UV-I 311 W/m 5,1 km/h (1 Bft)
20.07.2013 12:18 19,9 C 20,7 C 76 % 1022,0 hPa 0,0 l/m 0 min 0 min 1,6 UV-I 301 W/m 18,0 km/h (3 Bft)
20.07.2013 12:20 19,9 C 20,7 C 76 % 1022,1 hPa 0,0 l/m 0 min 0 min 1,6 UV-I 299 W/m 15,4 km/h (3 Bft)
20.07.2013 12:22 19,9 C 20,7 C 75 % 1022,1 hPa 0,0 l/m 0 min 0 min 1,6 UV-I 295 W/m 15,4 km/h (3 Bft)
20.07.2013 12:24 19,9 C 20,1 C 75 % 1022,1 hPa 0,0 l/m 0 min 0 min 1,6 UV-I 288 W/m 18,0 km/h (3 Bft)
20.07.2013 12:26 19,9 C 20,7 C 75 % 1022,1 hPa 0,0 l/m 0 min 0 min 1,4 UV-I 274 W/m 18,0 km/h (3 Bft)
20.07.2013 12:28 20,0 C 20,7 C 76 % 1022,1 hPa 0,0 l/m 0 min 0 min 1,3 UV-I 258 W/m 10,3 km/h (2 Bft)
20.07.2013 12:30 20,0 C 20,7 C 75 % 1022,1 hPa 0,0 l/m 0 min 0 min 1,3 UV-I 253 W/m 12,9 km/h (3 Bft)
20.07.2013 12:32 20,1 C 20,7 C 75 % 1022,0 hPa 0,0 l/m 0 min 0 min 1,3 UV-I 246 W/m 7,7 km/h (2 Bft)
20.07.2013 12:34 20,1 C 20,7 C 75 % 1022,0 hPa 0,0 l/m 0 min 0 min 1,2 UV-I 243 W/m 7,7 km/h (2 Bft)
20.07.2013 12:36 20,1 C 20,7 C 75 % 1022,0 hPa 0,0 l/m 0 min 0 min 1,2 UV-I 229 W/m 7,7 km/h (2 Bft)
20.07.2013 12:38 20,1 C 20,7 C 75 % 1022,0 hPa 0,0 l/m 0 min 0 min 1,1 UV-I 227 W/m 0,0 km/h (0 Bft)
20.07.2013 12:40 20,2 C 20,7 C 76 % 1022,1 hPa 0,0 l/m 0 min 0 min 1,1 UV-I 223 W/m 0,0 km/h (0 Bft)
20.07.2013 12:42 20,2 C 20,7 C 76 % 1022,0 hPa 0,0 l/m 0 min 0 min 1,1 UV-I 214 W/m 0,0 km/h (0 Bft)
20.07.2013 12:44 20,2 C 20,7 C 75 % 1022,0 hPa 0,0 l/m 0 min 0 min 1,0 UV-I 207 W/m 7,7 km/h (2 Bft)
20.07.2013 12:46 20,3 C 20,7 C 75 % 1022,0 hPa 0,0 l/m 0 min 0 min 1,0 UV-I 204 W/m 10,3 km/h (2 Bft)
20.07.2013 12:48 20,2 C 20,1 C 75 % 1022,0 hPa 0,0 l/m 0 min 0 min 1,0 UV-I 204 W/m 12,9 km/h (3 Bft)
20.07.2013 12:50 20,2 C 20,1 C 75 % 1022,0 hPa 0,0 l/m 0 min 0 min 1,0 UV-I 206 W/m 10,3 km/h (2 Bft)
20.07.2013 12:52 20,2 C 20,1 C 75 % 1022,0 hPa 0,0 l/m 0 min 0 min 1,0 UV-I 202 W/m 15,4 km/h (3 Bft)
20.07.2013 12:54 20,1 C 20,1 C 75 % 1022,0 hPa 0,0 l/m 0 min 0 min 1,0 UV-I 200 W/m 10,3 km/h (2 Bft)
20.07.2013 12:56 20,1 C 20,1 C 75 % 1021,9 hPa 0,0 l/m 0 min 0 min 1,0 UV-I 200 W/m 12,9 km/h (3 Bft)
20.07.2013 12:58 20,1 C 20,1 C 75 % 1021,9 hPa 0,0 l/m 0 min 0 min 0,9 UV-I 197 W/m 5,1 km/h (1 Bft)
20.07.2013 13:00 20,1 C 20,1 C 75 % 1021,9 hPa 0,0 l/m 0 min 0 min 0,9 UV-I 195 W/m 0,0 km/h (0 Bft)
20.07.2013 13:02 20,1 C 20,1 C 76 % 1021,9 hPa 0,0 l/m 0 min 0 min 1,0 UV-I 199 W/m 7,7 km/h (2 Bft)
20.07.2013 13:06 20,1 C 20,7 C 76 % 1021,9 hPa 0,0 l/m 0 min 0 min 1,0 UV-I 206 W/m 5,1 km/h (1 Bft)
20.07.2013 13:08 20,1 C 20,7 C 76 % 1021,9 hPa 0,0 l/m 0 min 0 min 1,0 UV-I 209 W/m 0,0 km/h (0 Bft)
20.07.2013 13:10 20,2 C 20,7 C 75 % 1021,9 hPa 0,0 l/m 0 min 0 min 1,1 UV-I 213 W/m 10,3 km/h (2 Bft)
20.07.2013 13:12 20,2 C 20,7 C 75 % 1021,9 hPa 0,0 l/m 0 min 0 min 1,1 UV-I 220 W/m 0,0 km/h (0 Bft)
20.07.2013 13:14 20,2 C 20,7 C 76 % 1021,8 hPa 0,0 l/m 0 min 0 min 1,1 UV-I 218 W/m 2,6 km/h (1 Bft)
20.07.2013 13:16 20,2 C 20,7 C 75 % 1021,9 hPa 0,0 l/m 0 min 0 min 1,1 UV-I 216 W/m 2,6 km/h (1 Bft)
20.07.2013 13:18 20,2 C 20,7 C 75 % 1021,8 hPa 0,0 l/m 0 min 0 min 1,1 UV-I 216 W/m 0,0 km/h (0 Bft)
20.07.2013 13:20 20,3 C 20,7 C 76 % 1021,8 hPa 0,0 l/m 0 min 0 min 1,1 UV-I 221 W/m 2,6 km/h (1 Bft)
20.07.2013 13:22 20,3 C 20,7 C 75 % 1021,8 hPa 0,0 l/m 0 min 0 min 1,2 UV-I 227 W/m 2,6 km/h (1 Bft)
20.07.2013 13:24 20,3 C 20,7 C 75 % 1021,8 hPa 0,0 l/m 0 min 0 min 1,2 UV-I 237 W/m 5,1 km/h (1 Bft)
20.07.2013 13:26 20,3 C 21,2 C 75 % 1021,8 hPa 0,0 l/m 0 min 0 min 1,3 UV-I 241 W/m 2,6 km/h (1 Bft)
20.07.2013 13:28 20,4 C 21,2 C 75 % 1021,8 hPa 0,0 l/m 0 min 0 min 1,3 UV-I 243 W/m 0,0 km/h (0 Bft)
20.07.2013 13:30 20,4 C 21,2 C 75 % 1021,7 hPa 0,0 l/m 0 min 0 min 1,4 UV-I 253 W/m 7,7 km/h (2 Bft)
20.07.2013 13:32 20,4 C 21,2 C 75 % 1021,7 hPa 0,0 l/m 0 min 0 min 1,3 UV-I 250 W/m 2,6 km/h (1 Bft)
20.07.2013 13:34 20,5 C 21,2 C 75 % 1021,7 hPa 0,0 l/m 0 min 0 min 1,3 UV-I 243 W/m 0,0 km/h (0 Bft)
20.07.2013 13:36 20,5 C 20,7 C 74 % 1021,7 hPa 0,0 l/m 0 min 0 min 1,3 UV-I 239 W/m 23,2 km/h (4 Bft)
20.07.2013 13:38 20,5 C 20,7 C 75 % 1021,7 hPa 0,0 l/m 0 min 0 min 1,2 UV-I 237 W/m 0,0 km/h (0 Bft)
20.07.2013 13:40 20,5 C 21,2 C 75 % 1021,7 hPa 0,0 l/m 0 min 0 min 1,2 UV-I 236 W/m 2,6 km/h (1 Bft)
20.07.2013 13:42 20,5 C 20,7 C 74 % 1021,6 hPa 0,0 l/m 0 min 0 min 1,3 UV-I 243 W/m 10,3 km/h (2 Bft)
20.07.2013 13:44 20,5 C 20,7 C 74 % 1021,6 hPa 0,0 l/m 0 min 0 min 1,3 UV-I 253 W/m 12,9 km/h (3 Bft)
20.07.2013 13:46 20,5 C 20,7 C 74 % 1021,6 hPa 0,0 l/m 0 min 0 min 1,4 UV-I 271 W/m 12,9 km/h (3 Bft)
20.07.2013 13:48 20,5 C 20,7 C 74 % 1021,5 hPa 0,0 l/m 0 min 0 min 1,5 UV-I 279 W/m 10,3 km/h (2 Bft)
20.07.2013 13:50 20,5 C 20,7 C 74 % 1021,6 hPa 0,0 l/m 0 min 0 min 1,6 UV-I 287 W/m 10,3 km/h (2 Bft)
20.07.2013 13:52 20,5 C 21,2 C 74 % 1021,5 hPa 0,0 l/m 0 min 0 min 1,6 UV-I 287 W/m 5,1 km/h (1 Bft)
20.07.2013 13:54 20,6 C 21,2 C 75 % 1021,5 hPa 0,0 l/m 0 min 0 min 1,6 UV-I 285 W/m 0,0 km/h (0 Bft)
20.07.2013 13:56 20,6 C 21,8 C 75 % 1021,6 hPa 0,0 l/m 0 min 0 min 1,6 UV-I 281 W/m 0,0 km/h (0 Bft)
20.07.2013 13:58 20,6 C 21,2 C 73 % 1021,6 hPa 0,0 l/m 0 min 0 min 1,6 UV-I 285 W/m 15,4 km/h (3 Bft)
20.07.2013 14:00 20,6 C 21,2 C 73 % 1021,5 hPa 0,0 l/m 0 min 0 min 1,6 UV-I 287 W/m 12,9 km/h (3 Bft)
20.07.2013 14:02 20,6 C 21,2 C 73 % 1021,6 hPa 0,0 l/m 0 min 0 min 1,7 UV-I 295 W/m 7,7 km/h (2 Bft)
20.07.2013 14:06 20,7 C 21,8 C 73 % 1021,6 hPa 0,0 l/m 0 min 0 min 1,8 UV-I 308 W/m 12,9 km/h (3 Bft)
20.07.2013 14:08 20,7 C 22,3 C 73 % 1021,6 hPa 0,0 l/m 0 min 0 min 1,7 UV-I 304 W/m 0,0 km/h (0 Bft)
20.07.2013 14:10 20,8 C 22,3 C 73 % 1021,6 hPa 0,0 l/m 0 min 0 min 1,8 UV-I 315 W/m 0,0 km/h (0 Bft)
20.07.2013 14:12 20,8 C 22,3 C 74 % 1021,6 hPa 0,0 l/m 0 min 0 min 2,0 UV-I 334 W/m 15,4 km/h (3 Bft)
20.07.2013 14:14 20,8 C 21,8 C 72 % 1021,5 hPa 0,0 l/m 0 min 0 min 2,0 UV-I 348 W/m 18,0 km/h (3 Bft)
20.07.2013 14:16 20,9 C 21,8 C 72 % 1021,5 hPa 0,0 l/m 0 min 0 min 2,0 UV-I 338 W/m 10,3 km/h (2 Bft)
20.07.2013 14:18 20,9 C 21,8 C 73 % 1021,5 hPa 0,0 l/m 0 min 0 min 2,0 UV-I 343 W/m 12,9 km/h (3 Bft)
20.07.2013 14:20 20,9 C 22,3 C 73 % 1021,4 hPa 0,0 l/m 0 min 0 min 2,1 UV-I 352 W/m 12,9 km/h (3 Bft)
20.07.2013 14:22 21,0 C 22,3 C 72 % 1021,5 hPa 0,0 l/m 0 min 0 min 2,1 UV-I 359 W/m 10,3 km/h (2 Bft)
20.07.2013 14:24 21,0 C 21,8 C 72 % 1021,4 hPa 0,0 l/m 0 min 0 min 2,0 UV-I 343 W/m 18,0 km/h (3 Bft)
20.07.2013 14:26 21,1 C 21,8 C 72 % 1021,4 hPa 0,0 l/m 0 min 0 min 2,0 UV-I 339 W/m 10,3 km/h (2 Bft)
20.07.2013 14:28 21,1 C 22,3 C 72 % 1021,3 hPa 0,0 l/m 0 min 0 min 2,1 UV-I 355 W/m 2,6 km/h (1 Bft)
20.07.2013 14:30 21,2 C 22,3 C 73 % 1021,3 hPa 0,0 l/m 0 min 0 min 2,1 UV-I 360 W/m 15,4 km/h (3 Bft)
20.07.2013 14:32 21,2 C 21,8 C 72 % 1021,3 hPa 0,0 l/m 0 min 0 min 2,1 UV-I 359 W/m 12,9 km/h (3 Bft)
20.07.2013 14:34 21,2 C 22,3 C 72 % 1021,3 hPa 0,0 l/m 0 min 0 min 2,1 UV-I 355 W/m 15,4 km/h (3 Bft)
20.07.2013 14:36 21,3 C 22,3 C 73 % 1021,3 hPa 0,0 l/m 0 min 0 min 2,2 UV-I 366 W/m 2,6 km/h (1 Bft)
20.07.2013 14:38 21,3 C 22,3 C 72 % 1021,3 hPa 0,0 l/m 0 min 0 min 2,2 UV-I 376 W/m 12,9 km/h (3 Bft)
20.07.2013 14:40 21,3 C 22,3 C 71 % 1021,3 hPa 0,0 l/m 0 min 0 min 2,3 UV-I 367 W/m 15,4 km/h (3 Bft)
20.07.2013 14:42 21,3 C 22,3 C 71 % 1021,2 hPa 0,0 l/m 0 min 0 min 2,5 UV-I 410 W/m 15,4 km/h (3 Bft)
20.07.2013 14:44 21,4 C 22,9 C 72 % 1021,2 hPa 0,0 l/m 0 min 0 min 3,5 UV-I 448 W/m 0,0 km/h (0 Bft)
20.07.2013 14:46 21,5 C 22,9 C 73 % 1021,2 hPa 0,0 l/m 0 min 0 min 2,1 UV-I 378 W/m 15,4 km/h (3 Bft)
20.07.2013 14:48 21,6 C 22,9 C 71 % 1021,2 hPa 0,0 l/m 0 min 0 min 2,0 UV-I 353 W/m 15,4 km/h (3 Bft)
20.07.2013 14:50 21,6 C 22,3 C 71 % 1021,2 hPa 0,0 l/m 0 min 0 min 1,9 UV-I 341 W/m 12,9 km/h (3 Bft)
20.07.2013 14:52 21,6 C 22,3 C 71 % 1021,2 hPa 0,0 l/m 0 min 0 min 1,7 UV-I 320 W/m 15,4 km/h (3 Bft)
20.07.2013 14:54 21,6 C 22,3 C 71 % 1021,2 hPa 0,0 l/m 0 min 0 min 1,7 UV-I 313 W/m 25,7 km/h (4 Bft)
20.07.2013 14:56 21,6 C 22,3 C 72 % 1021,2 hPa 0,0 l/m 0 min 0 min 1,8 UV-I 315 W/m 18,0 km/h (3 Bft)
20.07.2013 14:58 21,6 C 22,3 C 71 % 1021,2 hPa 0,0 l/m 0 min 0 min 1,9 UV-I 336 W/m 12,9 km/h (3 Bft)
20.07.2013 15:00 21,6 C 22,3 C 71 % 1021,2 hPa 0,0 l/m 0 min 0 min 1,9 UV-I 334 W/m 12,9 km/h (3 Bft)
20.07.2013 15:02 21,6 C 22,3 C 72 % 1021,2 hPa 0,0 l/m 0 min 0 min 1,8 UV-I 332 W/m 7,7 km/h (2 Bft)
20.07.2013 15:06 21,6 C 22,3 C 72 % 1021,1 hPa 0,0 l/m 0 min 0 min 1,7 UV-I 311 W/m 18,0 km/h (3 Bft)
20.07.2013 15:08 21,6 C 22,3 C 71 % 1021,1 hPa 0,0 l/m 0 min 0 min 1,7 UV-I 309 W/m 10,3 km/h (2 Bft)
20.07.2013 15:10 21,6 C 22,3 C 71 % 1021,2 hPa 0,0 l/m 0 min 0 min 1,7 UV-I 311 W/m 0,0 km/h (0 Bft)
20.07.2013 15:12 21,7 C 22,3 C 71 % 1021,2 hPa 0,0 l/m 0 min 0 min 1,8 UV-I 320 W/m 7,7 km/h (2 Bft)
20.07.2013 15:14 21,7 C 22,3 C 71 % 1021,2 hPa 0,0 l/m 0 min 0 min 1,8 UV-I 339 W/m 2,6 km/h (1 Bft)
20.07.2013 15:16 21,7 C 22,9 C 72 % 1021,2 hPa 0,0 l/m 0 min 0 min 1,9 UV-I 352 W/m 10,3 km/h (2 Bft)
20.07.2013 15:18 21,8 C 22,9 C 72 % 1021,2 hPa 0,0 l/m 0 min 0 min 1,9 UV-I 352 W/m 10,3 km/h (2 Bft)
20.07.2013 15:20 21,8 C 22,9 C 72 % 1021,2 hPa 0,0 l/m 0 min 0 min 1,7 UV-I 315 W/m 10,3 km/h (2 Bft)
20.07.2013 15:22 21,8 C 22,3 C 71 % 1021,2 hPa 0,0 l/m 0 min 0 min 1,7 UV-I 318 W/m 18,0 km/h (3 Bft)
20.07.2013 15:24 21,8 C 22,3 C 71 % 1021,2 hPa 0,0 l/m 0 min 0 min 1,7 UV-I 320 W/m 15,4 km/h (3 Bft)
20.07.2013 15:26 21,8 C 22,3 C 71 % 1021,2 hPa 0,0 l/m 0 min 0 min 1,7 UV-I 316 W/m 12,9 km/h (3 Bft)
20.07.2013 15:28 21,8 C 22,3 C 72 % 1021,2 hPa 0,0 l/m 0 min 0 min 1,5 UV-I 306 W/m 12,9 km/h (3 Bft)
20.07.2013 15:30 21,8 C 22,3 C 71 % 1021,2 hPa 0,0 l/m 0 min 0 min 1,5 UV-I 297 W/m 15,4 km/h (3 Bft)
20.07.2013 15:32 21,7 C 22,3 C 71 % 1021,3 hPa 0,0 l/m 0 min 0 min 1,4 UV-I 283 W/m 7,7 km/h (2 Bft)
20.07.2013 15:34 21,7 C 21,8 C 71 % 1021,2 hPa 0,0 l/m 0 min 0 min 1,4 UV-I 279 W/m 23,2 km/h (4 Bft)
20.07.2013 15:36 21,7 C 21,8 C 71 % 1021,2 hPa 0,0 l/m 0 min 0 min 1,4 UV-I 279 W/m 10,3 km/h (2 Bft)
20.07.2013 15:38 21,6 C 21,8 C 71 % 1021,2 hPa 0,0 l/m 0 min 0 min 1,4 UV-I 292 W/m 18,0 km/h (3 Bft)
20.07.2013 15:40 21,6 C 21,8 C 72 % 1021,1 hPa 0,0 l/m 0 min 0 min 1,5 UV-I 309 W/m 12,9 km/h (3 Bft)
20.07.2013 15:42 21,6 C 22,3 C 72 % 1021,2 hPa 0,0 l/m 0 min 0 min 1,5 UV-I 315 W/m 10,3 km/h (2 Bft)
20.07.2013 15:44 21,6 C 22,3 C 72 % 1021,2 hPa 0,0 l/m 0 min 0 min 1,5 UV-I 311 W/m 20,6 km/h (4 Bft)
20.07.2013 15:46 21,6 C 22,3 C 72 % 1021,2 hPa 0,0 l/m 0 min 0 min 1,4 UV-I 299 W/m 10,3 km/h (2 Bft)
20.07.2013 15:48 21,6 C 22,3 C 73 % 1021,1 hPa 0,0 l/m 0 min 0 min 1,4 UV-I 283 W/m 7,7 km/h (2 Bft)
20.07.2013 15:50 21,6 C 22,3 C 73 % 1021,2 hPa 0,0 l/m 0 min 0 min 1,2 UV-I 269 W/m 15,4 km/h (3 Bft)
20.07.2013 15:52 21,6 C 21,8 C 72 % 1021,2 hPa 0,0 l/m 0 min 0 min 1,3 UV-I 269 W/m 12,9 km/h (3 Bft)
20.07.2013 15:54 21,6 C 21,8 C 72 % 1021,1 hPa 0,0 l/m 0 min 0 min 1,3 UV-I 272 W/m 10,3 km/h (2 Bft)
20.07.2013 15:56 21,6 C 21,8 C 72 % 1021,1 hPa 0,0 l/m 0 min 0 min 1,4 UV-I 283 W/m 10,3 km/h (2 Bft)
20.07.2013 15:58 21,6 C 21,8 C 71 % 1021,1 hPa 0,0 l/m 0 min 0 min 1,4 UV-I 295 W/m 12,9 km/h (3 Bft)
20.07.2013 16:00 21,6 C 22,3 C 71 % 1021,1 hPa 0,0 l/m 0 min 0 min 1,4 UV-I 311 W/m 7,7 km/h (2 Bft)
20.07.2013 16:02 21,7 C 22,9 C 71 % 1021,0 hPa 0,0 l/m 0 min 0 min 1,5 UV-I 330 W/m 2,6 km/h (1 Bft)
20.07.2013 16:06 21,8 C 22,9 C 72 % 1021,1 hPa 0,0 l/m 0 min 0 min 1,3 UV-I 294 W/m 5,1 km/h (1 Bft)
20.07.2013 16:08 21,8 C 22,9 C 72 % 1021,1 hPa 0,0 l/m 0 min 0 min 1,4 UV-I 295 W/m 7,7 km/h (2 Bft)
20.07.2013 16:10 21,9 C 22,9 C 71 % 1021,1 hPa 0,0 l/m 0 min 0 min 1,6 UV-I 318 W/m 12,9 km/h (3 Bft)
20.07.2013 16:12 21,9 C 22,9 C 70 % 1021,1 hPa 0,0 l/m 0 min 0 min 1,7 UV-I 352 W/m 10,3 km/h (2 Bft)
20.07.2013 16:14 22,0 C 22,9 C 71 % 1021,0 hPa 0,0 l/m 0 min 0 min 1,8 UV-I 390 W/m 7,7 km/h (2 Bft)
20.07.2013 16:16 22,1 C 22,9 C 70 % 1021,0 hPa 0,0 l/m 0 min 0 min 1,7 UV-I 343 W/m 10,3 km/h (2 Bft)
20.07.2013 16:18 22,1 C 22,9 C 70 % 1021,0 hPa 0,0 l/m 0 min 0 min 1,6 UV-I 343 W/m 12,9 km/h (3 Bft)
20.07.2013 16:20 22,1 C 22,9 C 70 % 1021,0 hPa 0,0 l/m 0 min 0 min 2,3 UV-I 339 W/m 10,3 km/h (2 Bft)
20.07.2013 16:22 22,1 C 22,9 C 71 % 1021,0 hPa 0,0 l/m 0 min 0 min 1,7 UV-I 338 W/m 12,9 km/h (3 Bft)
20.07.2013 16:24 22,2 C 22,9 C 70 % 1021,0 hPa 0,0 l/m 0 min 0 min 1,8 UV-I 359 W/m 18,0 km/h (3 Bft)
20.07.2013 16:26 22,2 C 23,4 C 69 % 1020,9 hPa 0,0 l/m 2 min 0 min 2,3 UV-I 478 W/m 10,3 km/h (2 Bft)
20.07.2013 16:28 22,3 C 23,4 C 69 % 1021,0 hPa 0,0 l/m 2 min 0 min 2,2 UV-I 480 W/m 12,9 km/h (3 Bft)
20.07.2013 16:30 22,4 C 24,0 C 70 % 1020,9 hPa 0,0 l/m 2 min 0 min 2,0 UV-I 434 W/m 2,6 km/h (1 Bft)
20.07.2013 16:32 22,4 C 23,4 C 69 % 1020,9 hPa 0,0 l/m 2 min 0 min 1,9 UV-I 413 W/m 10,3 km/h (2 Bft)
20.07.2013 16:34 22,4 C 23,4 C 69 % 1020,9 hPa 0,0 l/m 0 min 0 min 1,6 UV-I 338 W/m 10,3 km/h (2 Bft)
20.07.2013 16:36 22,4 C 22,9 C 68 % 1020,9 hPa 0,0 l/m 0 min 0 min 2,3 UV-I 334 W/m 20,6 km/h (4 Bft)
20.07.2013 16:38 22,4 C 22,9 C 68 % 1020,9 hPa 0,0 l/m 0 min 0 min 1,7 UV-I 258 W/m 20,6 km/h (4 Bft)
20.07.2013 16:40 22,3 C 22,3 C 69 % 1021,0 hPa 0,0 l/m 0 min 0 min 1,7 UV-I 290 W/m 12,9 km/h (3 Bft)
20.07.2013 16:42 22,3 C 22,9 C 69 % 1021,0 hPa 0,0 l/m 2 min 0 min 2,5 UV-I 680 W/m 10,3 km/h (2 Bft)
20.07.2013 16:44 22,4 C 23,4 C 69 % 1020,9 hPa 0,0 l/m 2 min 0 min 2,5 UV-I 691 W/m 2,6 km/h (1 Bft)
20.07.2013 16:46 22,5 C 23,4 C 69 % 1021,0 hPa 0,0 l/m 2 min 0 min 1,8 UV-I 383 W/m 7,7 km/h (2 Bft)
20.07.2013 16:48 22,6 C 23,4 C 69 % 1020,9 hPa 0,0 l/m 0 min 0 min 1,7 UV-I 278 W/m 23,2 km/h (4 Bft)
20.07.2013 16:50 22,6 C 22,9 C 68 % 1020,9 hPa 0,0 l/m 0 min 0 min 1,5 UV-I 297 W/m 23,2 km/h (4 Bft)
20.07.2013 16:52 22,6 C 22,3 C 68 % 1020,9 hPa 0,0 l/m 0 min 0 min 1,5 UV-I 274 W/m 10,3 km/h (2 Bft)
20.07.2013 16:54 22,6 C 22,9 C 68 % 1020,9 hPa 0,0 l/m 2 min 0 min 2,2 UV-I 492 W/m 10,3 km/h (2 Bft)
20.07.2013 16:56 22,6 C 22,9 C 69 % 1020,8 hPa 0,0 l/m 2 min 0 min 1,8 UV-I 439 W/m 18,0 km/h (3 Bft)
20.07.2013 16:58 22,6 C 22,9 C 69 % 1020,8 hPa 0,0 l/m 2 min 0 min 1,3 UV-I 371 W/m 10,3 km/h (2 Bft)
20.07.2013 17:00 22,6 C 22,9 C 69 % 1020,9 hPa 0,0 l/m 0 min 0 min 1,4 UV-I 262 W/m 7,7 km/h (2 Bft)
20.07.2013 17:02 22,7 C 22,9 C 69 % 1020,9 hPa 0,0 l/m 0 min 0 min 1,8 UV-I 288 W/m 10,3 km/h (2 Bft)
20.07.2013 17:06 22,7 C 22,9 C 68 % 1020,8 hPa 0,0 l/m 2 min 0 min 1,8 UV-I 619 W/m 15,4 km/h (3 Bft)
20.07.2013 17:08 22,8 C 22,9 C 68 % 1020,8 hPa 0,0 l/m 2 min 0 min 2,0 UV-I 619 W/m 12,9 km/h (3 Bft)
20.07.2013 17:10 22,9 C 22,9 C 68 % 1020,8 hPa 0,0 l/m 2 min 0 min 2,0 UV-I 584 W/m 5,1 km/h (1 Bft)
20.07.2013 17:12 23,0 C 22,9 C 67 % 1020,8 hPa 0,0 l/m 2 min 0 min 2,0 UV-I 577 W/m 18,0 km/h (3 Bft)
20.07.2013 17:14 23,0 C 22,9 C 67 % 1020,8 hPa 0,0 l/m 2 min 0 min 1,6 UV-I 499 W/m 15,4 km/h (3 Bft)
20.07.2013 17:16 23,1 C 22,9 C 67 % 1020,7 hPa 0,0 l/m 2 min 0 min 1,7 UV-I 533 W/m 12,9 km/h (3 Bft)
20.07.2013 17:18 23,1 C 22,9 C 66 % 1020,8 hPa 0,0 l/m 2 min 0 min 1,6 UV-I 431 W/m 18,0 km/h (3 Bft)
20.07.2013 17:20 23,1 C 22,9 C 67 % 1020,7 hPa 0,0 l/m 0 min 0 min 1,1 UV-I 178 W/m 10,3 km/h (2 Bft)
20.07.2013 17:22 23,1 C 22,9 C 66 % 1020,7 hPa 0,0 l/m 0 min 0 min 1,5 UV-I 181 W/m 10,3 km/h (2 Bft)
20.07.2013 17:24 23,1 C 22,3 C 66 % 1020,6 hPa 0,0 l/m 2 min 0 min 1,7 UV-I 506 W/m 10,3 km/h (2 Bft)
20.07.2013 17:26 23,1 C 22,9 C 67 % 1020,7 hPa 0,0 l/m 2 min 0 min 1,7 UV-I 508 W/m 7,7 km/h (2 Bft)
20.07.2013 17:28 23,1 C 22,3 C 67 % 1020,7 hPa 0,0 l/m 2 min 0 min 1,7 UV-I 504 W/m 7,7 km/h (2 Bft)
20.07.2013 17:30 23,1 C 22,3 C 66 % 1020,5 hPa 0,0 l/m 2 min 0 min 1,6 UV-I 497 W/m 10,3 km/h (2 Bft)
20.07.2013 17:32 23,2 C 22,3 C 67 % 1020,5 hPa 0,0 l/m 2 min 0 min 1,6 UV-I 513 W/m 10,3 km/h (2 Bft)
20.07.2013 17:34 23,2 C 22,9 C 66 % 1020,5 hPa 0,0 l/m 2 min 0 min 1,6 UV-I 489 W/m 18,0 km/h (3 Bft)
20.07.2013 17:36 23,2 C 22,9 C 66 % 1020,5 hPa 0,0 l/m 2 min 0 min 1,5 UV-I 497 W/m 23,2 km/h (4 Bft)
20.07.2013 17:38 23,2 C 22,9 C 66 % 1020,5 hPa 0,0 l/m 2 min 0 min 1,0 UV-I 482 W/m 15,4 km/h (3 Bft)
20.07.2013 17:40 23,2 C 22,3 C 66 % 1020,5 hPa 0,0 l/m 0 min 0 min 0,9 UV-I 155 W/m 15,4 km/h (3 Bft)
20.07.2013 17:42 23,1 C 21,8 C 66 % 1020,5 hPa 0,0 l/m 0 min 0 min 1,3 UV-I 172 W/m 20,6 km/h (4 Bft)
20.07.2013 17:44 22,9 C 21,8 C 67 % 1020,5 hPa 0,0 l/m 2 min 0 min 1,4 UV-I 487 W/m 18,0 km/h (3 Bft)
20.07.2013 17:46 22,9 C 21,8 C 67 % 1020,5 hPa 0,0 l/m 2 min 0 min 1,4 UV-I 457 W/m 15,4 km/h (3 Bft)
20.07.2013 17:48 22,8 C 21,8 C 67 % 1020,4 hPa 0,0 l/m 2 min 0 min 1,3 UV-I 468 W/m 10,3 km/h (2 Bft)
20.07.2013 17:50 22,8 C 21,8 C 67 % 1020,4 hPa 0,0 l/m 2 min 0 min 1,1 UV-I 418 W/m 18,0 km/h (3 Bft)
20.07.2013 17:52 22,8 C 21,8 C 68 % 1020,4 hPa 0,0 l/m 2 min 0 min 1,2 UV-I 438 W/m 12,9 km/h (3 Bft)
20.07.2013 17:54 22,8 C 21,8 C 68 % 1020,4 hPa 0,0 l/m 0 min 0 min 0,8 UV-I 163 W/m 12,9 km/h (3 Bft)
20.07.2013 17:56 22,7 C 21,8 C 68 % 1020,3 hPa 0,0 l/m 0 min 0 min 1,2 UV-I 146 W/m 7,7 km/h (2 Bft)
20.07.2013 17:58 22,7 C 21,8 C 68 % 1020,4 hPa 0,0 l/m 2 min 0 min 1,1 UV-I 425 W/m 5,1 km/h (1 Bft)
20.07.2013 18:00 22,7 C 21,8 C 68 % 1020,3 hPa 0,0 l/m 2 min 0 min 1,1 UV-I 415 W/m 10,3 km/h (2 Bft)
20.07.2013 18:02 22,7 C 21,8 C 68 % 1020,3 hPa 0,0 l/m 2 min 0 min 1,1 UV-I 410 W/m 10,3 km/h (2 Bft)
20.07.2013 18:06 22,7 C 21,8 C 67 % 1020,3 hPa 0,0 l/m 2 min 0 min 1,0 UV-I 394 W/m 23,2 km/h (4 Bft)
20.07.2013 18:08 22,7 C 22,3 C 67 % 1020,3 hPa 0,0 l/m 2 min 0 min 0,9 UV-I 359 W/m 20,6 km/h (4 Bft)
20.07.2013 18:10 22,7 C 22,3 C 67 % 1020,3 hPa 0,0 l/m 2 min 0 min 0,9 UV-I 390 W/m 18,0 km/h (3 Bft)
20.07.2013 18:12 22,7 C 21,8 C 67 % 1020,3 hPa 0,0 l/m 2 min 0 min 0,9 UV-I 376 W/m 2,6 km/h (1 Bft)
20.07.2013 18:14 22,7 C 21,8 C 68 % 1020,3 hPa 0,0 l/m 2 min 0 min 0,9 UV-I 272 W/m 18,0 km/h (3 Bft)
20.07.2013 18:16 22,7 C 21,8 C 68 % 1020,3 hPa 0,0 l/m 2 min 0 min 0,9 UV-I 371 W/m 12,9 km/h (3 Bft)
20.07.2013 18:18 22,7 C 21,8 C 68 % 1020,2 hPa 0,0 l/m 2 min 0 min 0,8 UV-I 381 W/m 7,7 km/h (2 Bft)
20.07.2013 18:20 22,7 C 21,8 C 68 % 1020,3 hPa 0,0 l/m 2 min 0 min 0,8 UV-I 376 W/m 7,7 km/h (2 Bft)
20.07.2013 18:22 22,7 C 21,8 C 68 % 1020,3 hPa 0,0 l/m 2 min 0 min 0,5 UV-I 366 W/m 12,9 km/h (3 Bft)
20.07.2013 18:24 22,7 C 21,8 C 69 % 1020,3 hPa 0,0 l/m 0 min 0 min 0,5 UV-I 193 W/m 12,9 km/h (3 Bft)
20.07.2013 18:26 22,7 C 21,8 C 68 % 1020,3 hPa 0,0 l/m 0 min 0 min 0,7 UV-I 153 W/m 7,7 km/h (2 Bft)
20.07.2013 18:28 22,7 C 21,8 C 68 % 1020,2 hPa 0,0 l/m 0 min 0 min 0,7 UV-I 211 W/m 7,7 km/h (2 Bft)
20.07.2013 18:30 22,7 C 21,8 C 68 % 1020,2 hPa 0,0 l/m 2 min 0 min 0,7 UV-I 345 W/m 12,9 km/h (3 Bft)
20.07.2013 18:32 22,7 C 21,8 C 68 % 1020,2 hPa 0,0 l/m 2 min 0 min 0,0 UV-I 330 W/m 18,0 km/h (3 Bft)
20.07.2013 18:34 22,7 C 21,8 C 68 % 1020,2 hPa 0,0 l/m 2 min 0 min 0,5 UV-I 292 W/m 2,6 km/h (1 Bft)
20.07.2013 18:36 22,7 C 21,8 C 68 % 1020,2 hPa 0,0 l/m 0 min 0 min 0,6 UV-I 171 W/m 12,9 km/h (3 Bft)
20.07.2013 18:38 22,7 C 21,8 C 68 % 1020,2 hPa 0,0 l/m 2 min 0 min 0,5 UV-I 267 W/m 7,7 km/h (2 Bft)
20.07.2013 18:40 22,7 C 21,8 C 68 % 1020,1 hPa 0,0 l/m 2 min 0 min 0,0 UV-I 267 W/m 15,4 km/h (3 Bft)
20.07.2013 18:42 22,7 C 21,8 C 68 % 1020,1 hPa 0,0 l/m 0 min 0 min 0,0 UV-I 200 W/m 15,4 km/h (3 Bft)
20.07.2013 18:44 22,7 C 21,8 C 68 % 1020,1 hPa 0,0 l/m 0 min 0 min 0,0 UV-I 111 W/m 12,9 km/h (3 Bft)
20.07.2013 18:46 22,7 C 21,8 C 68 % 1020,1 hPa 0,0 l/m 0 min 0 min 0,0 UV-I 84 W/m 15,4 km/h (3 Bft)
20.07.2013 18:48 22,7 C 21,2 C 68 % 1020,1 hPa 0,0 l/m 0 min 0 min 0,0 UV-I 84 W/m 10,3 km/h (2 Bft)
20.07.2013 18:50 22,7 C 21,2 C 68 % 1020,1 hPa 0,0 l/m 0 min 0 min 0,0 UV-I 90 W/m 7,7 km/h (2 Bft)
20.07.2013 18:52 22,6 C 21,2 C 69 % 1020,0 hPa 0,0 l/m 0 min 0 min 0,0 UV-I 116 W/m 12,9 km/h (3 Bft)
20.07.2013 18:54 22,6 C 21,2 C 69 % 1020,1 hPa 0,0 l/m 0 min 0 min 0,0 UV-I 95 W/m 12,9 km/h (3 Bft)
20.07.2013 18:56 22,6 C 21,2 C 69 % 1020,0 hPa 0,0 l/m 0 min 0 min 0,0 UV-I 139 W/m 12,9 km/h (3 Bft)
20.07.2013 18:58 22,5 C 21,2 C 69 % 1020,0 hPa 0,0 l/m 0 min 0 min 0,0 UV-I 148 W/m 10,3 km/h (2 Bft)
20.07.2013 19:00 22,4 C 21,2 C 69 % 1020,0 hPa 0,0 l/m 0 min 0 min 0,0 UV-I 83 W/m 10,3 km/h (2 Bft)
20.07.2013 19:02 22,4 C 21,2 C 70 % 1020,0 hPa 0,0 l/m 0 min 0 min 0,0 UV-I 77 W/m 12,9 km/h (3 Bft)
20.07.2013 19:06 22,4 C 21,2 C 70 % 1020,0 hPa 0,0 l/m 0 min 0 min 0,0 UV-I 76 W/m 12,9 km/h (3 Bft)
20.07.2013 19:08 22,4 C 21,2 C 70 % 1020,0 hPa 0,0 l/m 0 min 0 min 0,0 UV-I 76 W/m 2,6 km/h (1 Bft)
20.07.2013 19:10 22,4 C 21,2 C 70 % 1020,0 hPa 0,0 l/m 0 min 0 min 0,0 UV-I 76 W/m 0,0 km/h (0 Bft)
20.07.2013 19:12 22,4 C 21,2 C 70 % 1020,0 hPa 0,0 l/m 0 min 0 min 0,0 UV-I 79 W/m 7,7 km/h (2 Bft)
20.07.2013 19:14 22,4 C 21,2 C 70 % 1020,0 hPa 0,0 l/m 0 min 0 min 0,0 UV-I 77 W/m 2,6 km/h (1 Bft)
20.07.2013 19:16 22,4 C 21,2 C 70 % 1020,1 hPa 0,0 l/m 0 min 0 min 0,0 UV-I 76 W/m 2,6 km/h (1 Bft)
20.07.2013 19:18 22,4 C 21,2 C 70 % 1020,1 hPa 0,0 l/m 0 min 0 min 0,0 UV-I 74 W/m 12,9 km/h (3 Bft)
20.07.2013 19:20 22,4 C 21,2 C 70 % 1020,0 hPa 0,0 l/m 0 min 0 min 0,0 UV-I 72 W/m 7,7 km/h (2 Bft)
20.07.2013 19:22 22,4 C 21,2 C 70 % 1020,0 hPa 0,0 l/m 0 min 0 min 0,0 UV-I 72 W/m 0,0 km/h (0 Bft)
20.07.2013 19:24 22,4 C 21,2 C 70 % 1020,0 hPa 0,0 l/m 0 min 0 min 0,0 UV-I 70 W/m 0,0 km/h (0 Bft)
20.07.2013 19:26 22,4 C 21,2 C 70 % 1019,9 hPa 0,0 l/m 0 min 0 min 0,0 UV-I 70 W/m 2,6 km/h (1 Bft)
20.07.2013 19:28 22,4 C 21,2 C 70 % 1020,0 hPa 0,0 l/m 0 min 0 min 0,0 UV-I 70 W/m 2,6 km/h (1 Bft)
20.07.2013 19:30 22,4 C 21,2 C 70 % 1019,9 hPa 0,0 l/m 0 min 0 min 0,0 UV-I 69 W/m 10,3 km/h (2 Bft)
20.07.2013 19:32 22,4 C 21,2 C 70 % 1020,0 hPa 0,0 l/m 0 min 0 min 0,0 UV-I 69 W/m 2,6 km/h (1 Bft)
20.07.2013 19:34 22,4 C 21,2 C 70 % 1020,0 hPa 0,0 l/m 0 min 0 min 0,0 UV-I 67 W/m 2,6 km/h (1 Bft)
20.07.2013 19:36 22,4 C 21,2 C 70 % 1019,9 hPa 0,0 l/m 0 min 0 min 0,0 UV-I 67 W/m 10,3 km/h (2 Bft)
20.07.2013 19:38 22,3 C 21,2 C 70 % 1019,9 hPa 0,0 l/m 0 min 0 min 0,0 UV-I 65 W/m 10,3 km/h (2 Bft)
20.07.2013 19:40 22,3 C 21,2 C 70 % 1019,9 hPa 0,0 l/m 0 min 0 min 0,0 UV-I 65 W/m 5,1 km/h (1 Bft)
20.07.2013 19:42 22,3 C 21,2 C 71 % 1019,9 hPa 0,0 l/m 0 min 0 min 0,0 UV-I 63 W/m 2,6 km/h (1 Bft)
20.07.2013 19:44 22,3 C 21,2 C 71 % 1019,9 hPa 0,0 l/m 0 min 0 min 0,0 UV-I 62 W/m 12,9 km/h (3 Bft)
20.07.2013 19:46 22,3 C 21,2 C 70 % 1019,8 hPa 0,0 l/m 0 min 0 min 0,0 UV-I 62 W/m 5,1 km/h (1 Bft)
20.07.2013 19:48 22,3 C 21,2 C 71 % 1019,9 hPa 0,0 l/m 0 min 0 min 0,0 UV-I 60 W/m 2,6 km/h (1 Bft)
20.07.2013 19:50 22,3 C 21,2 C 71 % 1019,9 hPa 0,0 l/m 0 min 0 min 0,0 UV-I 58 W/m 2,6 km/h (1 Bft)
20.07.2013 19:52 22,3 C 21,2 C 71 % 1019,8 hPa 0,0 l/m 0 min 0 min 0,0 UV-I 56 W/m 0,0 km/h (0 Bft)
20.07.2013 19:54 22,2 C 21,2 C 71 % 1019,9 hPa 0,0 l/m 0 min 0 min 0,0 UV-I 56 W/m 10,3 km/h (2 Bft)
20.07.2013 19:56 22,2 C 21,2 C 70 % 1019,9 hPa 0,0 l/m 0 min 0 min 0,0 UV-I 54 W/m 7,7 km/h (2 Bft)
20.07.2013 19:58 22,2 C 20,7 C 70 % 1019,8 hPa 0,0 l/m 0 min 0 min 0,0 UV-I 53 W/m 10,3 km/h (2 Bft)
20.07.2013 20:00 22,1 C 20,7 C 70 % 1019,8 hPa 0,0 l/m 0 min 0 min 0,0 UV-I 53 W/m 5,1 km/h (1 Bft)
20.07.2013 20:02 22,1 C 20,7 C 71 % 1019,8 hPa 0,0 l/m 0 min 0 min 0,0 UV-I 51 W/m 0,0 km/h (0 Bft)
20.07.2013 20:06 22,1 C 20,7 C 71 % 1019,8 hPa 0,0 l/m 0 min 0 min 0,0 UV-I 49 W/m 5,1 km/h (1 Bft)
20.07.2013 20:08 22,1 C 20,7 C 71 % 1019,8 hPa 0,0 l/m 0 min 0 min 0,0 UV-I 47 W/m 7,7 km/h (2 Bft)
20.07.2013 20:10 22,1 C 20,7 C 71 % 1019,8 hPa 0,0 l/m 0 min 0 min 0,0 UV-I 46 W/m 0,0 km/h (0 Bft)
20.07.2013 20:12 22,1 C 20,7 C 71 % 1019,8 hPa 0,0 l/m 0 min 0 min 0,0 UV-I 46 W/m 0,0 km/h (0 Bft)
20.07.2013 20:14 22,0 C 20,7 C 71 % 1019,7 hPa 0,0 l/m 0 min 0 min 0,0 UV-I 44 W/m 5,1 km/h (1 Bft)
20.07.2013 20:16 22,0 C 20,7 C 71 % 1019,8 hPa 0,0 l/m 0 min 0 min 0,0 UV-I 42 W/m 0,0 km/h (0 Bft)
20.07.2013 20:18 22,0 C 20,7 C 72 % 1019,8 hPa 0,0 l/m 0 min 0 min 0,0 UV-I 42 W/m 5,1 km/h (1 Bft)
20.07.2013 20:20 21,9 C 20,7 C 72 % 1019,8 hPa 0,0 l/m 0 min 0 min 0,0 UV-I 40 W/m 7,7 km/h (2 Bft)
20.07.2013 20:22 21,9 C 20,7 C 72 % 1019,8 hPa 0,0 l/m 0 min 0 min 0,0 UV-I 40 W/m 7,7 km/h (2 Bft)
20.07.2013 20:24 21,9 C 20,7 C 72 % 1019,8 hPa 0,0 l/m 0 min 0 min 0,0 UV-I 39 W/m 0,0 km/h (0 Bft)
20.07.2013 20:26 21,9 C 20,7 C 72 % 1019,8 hPa 0,0 l/m 0 min 0 min 0,0 UV-I 37 W/m 0,0 km/h (0 Bft)
20.07.2013 20:28 21,9 C 20,7 C 72 % 1019,8 hPa 0,0 l/m 0 min 0 min 0,0 UV-I 37 W/m 0,0 km/h (0 Bft)
20.07.2013 20:30 21,9 C 20,1 C 72 % 1019,8 hPa 0,0 l/m 0 min 0 min 0,0 UV-I 35 W/m 0,0 km/h (0 Bft)
20.07.2013 20:32 21,8 C 20,1 C 72 % 1019,8 hPa 0,0 l/m 0 min 0 min 0,0 UV-I 35 W/m 0,0 km/h (0 Bft)
20.07.2013 20:34 21,8 C 20,1 C 72 % 1019,8 hPa 0,0 l/m 0 min 0 min 0,0 UV-I 33 W/m 2,6 km/h (1 Bft)
20.07.2013 20:36 21,8 C 20,1 C 72 % 1019,8 hPa 0,0 l/m 0 min 0 min 0,0 UV-I 32 W/m 0,0 km/h (0 Bft)
20.07.2013 20:38 21,8 C 20,1 C 72 % 1019,8 hPa 0,0 l/m 0 min 0 min 0,0 UV-I 32 W/m 18,0 km/h (3 Bft)
20.07.2013 20:40 21,8 C 20,1 C 72 % 1019,8 hPa 0,0 l/m 0 min 0 min 0,0 UV-I 30 W/m 10,3 km/h (2 Bft)
20.07.2013 20:42 21,7 C 20,1 C 72 % 1019,8 hPa 0,0 l/m 0 min 0 min 0,0 UV-I 30 W/m 2,6 km/h (1 Bft)
20.07.2013 20:44 21,7 C 20,1 C 72 % 1019,9 hPa 0,0 l/m 0 min 0 min 0,0 UV-I 28 W/m 0,0 km/h (0 Bft)
20.07.2013 20:46 21,7 C 20,1 C 72 % 1019,9 hPa 0,0 l/m 0 min 0 min 0,0 UV-I 28 W/m 7,7 km/h (2 Bft)
20.07.2013 20:48 21,7 C 20,1 C 72 % 1019,8 hPa 0,0 l/m 0 min 0 min 0,0 UV-I 26 W/m 0,0 km/h (0 Bft)
20.07.2013 20:50 21,6 C 19,6 C 72 % 1019,8 hPa 0,0 l/m 0 min 0 min 0,0 UV-I 25 W/m 0,0 km/h (0 Bft)
20.07.2013 20:52 21,6 C 19,6 C 72 % 1019,8 hPa 0,0 l/m 0 min 0 min 0,0 UV-I 25 W/m 10,3 km/h (2 Bft)
20.07.2013 20:54 21,6 C 19,6 C 73 % 1019,9 hPa 0,0 l/m 0 min 0 min 0,0 UV-I 23 W/m 2,6 km/h (1 Bft)
20.07.2013 20:56 21,5 C 19,6 C 73 % 1019,9 hPa 0,0 l/m 0 min 0 min 0,0 UV-I 23 W/m 2,6 km/h (1 Bft)
20.07.2013 20:58 21,5 C 19,6 C 73 % 1019,9 hPa 0,0 l/m 0 min 0 min 0,0 UV-I 21 W/m 0,0 km/h (0 Bft)
20.07.2013 21:00 21,4 C 19,6 C 73 % 1019,9 hPa 0,0 l/m 0 min 0 min 0,0 UV-I 19 W/m 0,0 km/h (0 Bft)
20.07.2013 21:02 21,4 C 19,6 C 73 % 1019,8 hPa 0,0 l/m 0 min 0 min 0,0 UV-I 19 W/m 0,0 km/h (0 Bft)
20.07.2013 21:06 21,3 C 19,6 C 73 % 1019,9 hPa 0,0 l/m 0 min 0 min 0,0 UV-I 18 W/m 0,0 km/h (0 Bft)
20.07.2013 21:08 21,3 C 19,6 C 73 % 1019,9 hPa 0,0 l/m 0 min 0 min 0,0 UV-I 16 W/m 0,0 km/h (0 Bft)
20.07.2013 21:10 21,3 C 19,0 C 73 % 1019,9 hPa 0,0 l/m 0 min 0 min 0,0 UV-I 16 W/m 0,0 km/h (0 Bft)
20.07.2013 21:12 21,2 C 19,0 C 74 % 1019,9 hPa 0,0 l/m 0 min 0 min 0,0 UV-I 14 W/m 2,6 km/h (1 Bft)
20.07.2013 21:14 21,2 C 19,0 C 74 % 1019,9 hPa 0,0 l/m 0 min 0 min 0,0 UV-I 14 W/m 0,0 km/h (0 Bft)
20.07.2013 21:16 21,2 C 19,0 C 74 % 1019,9 hPa 0,0 l/m 0 min 0 min 0,0 UV-I 12 W/m 0,0 km/h (0 Bft)
20.07.2013 21:18 21,1 C 19,0 C 74 % 1019,9 hPa 0,0 l/m 0 min 0 min 0,0 UV-I 12 W/m 0,0 km/h (0 Bft)
20.07.2013 21:20 21,1 C 19,0 C 74 % 1019,9 hPa 0,0 l/m 0 min 0 min 0,0 UV-I 12 W/m 0,0 km/h (0 Bft)
20.07.2013 21:22 21,1 C 19,0 C 74 % 1019,9 hPa 0,0 l/m 0 min 0 min 0,0 UV-I 11 W/m 0,0 km/h (0 Bft)
20.07.2013 21:24 21,0 C 18,4 C 74 % 1019,9 hPa 0,0 l/m 0 min 0 min 0,0 UV-I 11 W/m 0,0 km/h (0 Bft)
20.07.2013 21:26 21,0 C 18,4 C 75 % 1019,9 hPa 0,0 l/m 0 min 0 min 0,0 UV-I 9 W/m 0,0 km/h (0 Bft)
20.07.2013 21:28 20,9 C 18,4 C 75 % 1019,9 hPa 0,0 l/m 0 min 0 min 0,0 UV-I 9 W/m 0,0 km/h (0 Bft)
20.07.2013 21:30 20,8 C 18,4 C 75 % 1019,9 hPa 0,0 l/m 0 min 0 min 0,0 UV-I 7 W/m 0,0 km/h (0 Bft)
20.07.2013 21:32 20,8 C 18,4 C 75 % 1020,0 hPa 0,0 l/m 0 min 0 min 0,0 UV-I 7 W/m 0,0 km/h (0 Bft)
20.07.2013 21:34 20,8 C 18,4 C 75 % 1020,0 hPa 0,0 l/m 0 min 0 min 0,0 UV-I 7 W/m 0,0 km/h (0 Bft)
20.07.2013 21:36 20,8 C 18,4 C 75 % 1020,0 hPa 0,0 l/m 0 min 0 min 0,0 UV-I 5 W/m 0,0 km/h (0 Bft)
20.07.2013 21:38 20,7 C 18,4 C 75 % 1020,0 hPa 0,0 l/m 0 min 0 min 0,0 UV-I 5 W/m 0,0 km/h (0 Bft)
20.07.2013 21:40 20,7 C 18,4 C 75 % 1020,0 hPa 0,0 l/m 0 min 0 min 0,0 UV-I 5 W/m 2,6 km/h (1 Bft)
20.07.2013 21:42 20,6 C 18,4 C 75 % 1020,0 hPa 0,0 l/m 0 min 0 min 0,0 UV-I 0 W/m 0,0 km/h (0 Bft)
20.07.2013 21:44 20,6 C 18,4 C 76 % 1020,0 hPa 0,0 l/m 0 min 0 min 0,0 UV-I 0 W/m 0,0 km/h (0 Bft)
20.07.2013 21:46 20,6 C 17,9 C 76 % 1020,1 hPa 0,0 l/m 0 min 0 min 0,0 UV-I 0 W/m 0,0 km/h (0 Bft)
20.07.2013 21:48 20,5 C 17,9 C 76 % 1020,1 hPa 0,0 l/m 0 min 0 min 0,0 UV-I 0 W/m 0,0 km/h (0 Bft)
20.07.2013 21:50 20,4 C 17,9 C 76 % 1020,1 hPa 0,0 l/m 0 min 0 min 0,0 UV-I 0 W/m 0,0 km/h (0 Bft)
20.07.2013 21:52 20,4 C 18,4 C 76 % 1020,1 hPa 0,0 l/m 0 min 0 min 0,0 UV-I 0 W/m 0,0 km/h (0 Bft)
20.07.2013 21:54 20,3 C 17,9 C 76 % 1020,0 hPa 0,0 l/m 0 min 0 min 0,0 UV-I 0 W/m 0,0 km/h (0 Bft)
20.07.2013 21:56 20,3 C 17,9 C 76 % 1020,1 hPa 0,0 l/m 0 min 0 min 0,0 UV-I 0 W/m 0,0 km/h (0 Bft)
20.07.2013 21:58 20,3 C 17,9 C 77 % 1020,1 hPa 0,0 l/m 0 min 0 min 0,0 UV-I 0 W/m 0,0 km/h (0 Bft)
20.07.2013 22:00 20,2 C 17,9 C 77 % 1020,2 hPa 0,0 l/m 0 min 0 min 0,0 UV-I 0 W/m 0,0 km/h (0 Bft)
20.07.2013 22:02 20,2 C 17,3 C 77 % 1020,2 hPa 0,0 l/m 0 min 0 min 0,0 UV-I 0 W/m 0,0 km/h (0 Bft)
20.07.2013 22:06 20,1 C 17,3 C 77 % 1020,1 hPa 0,0 l/m 0 min 0 min 0,0 UV-I 0 W/m 0,0 km/h (0 Bft)
20.07.2013 22:08 20,1 C 17,3 C 77 % 1020,1 hPa 0,0 l/m 0 min 0 min 0,0 UV-I 0 W/m 0,0 km/h (0 Bft)
20.07.2013 22:10 20,0 C 17,3 C 77 % 1020,1 hPa 0,0 l/m 0 min 0 min 0,0 UV-I 0 W/m 0,0 km/h (0 Bft)
20.07.2013 22:12 19,9 C 17,3 C 78 % 1020,1 hPa 0,0 l/m 0 min 0 min 0,0 UV-I 0 W/m 0,0 km/h (0 Bft)
20.07.2013 22:14 19,9 C 17,3 C 78 % 1020,1 hPa 0,0 l/m 0 min 0 min 0,0 UV-I 0 W/m 0,0 km/h (0 Bft)
20.07.2013 22:16 19,8 C 16,8 C 78 % 1020,1 hPa 0,0 l/m 0 min 0 min 0,0 UV-I 0 W/m 0,0 km/h (0 Bft)
20.07.2013 22:18 19,8 C 16,8 C 78 % 1020,2 hPa 0,0 l/m 0 min 0 min 0,0 UV-I 0 W/m 0,0 km/h (0 Bft)
20.07.2013 22:20 19,8 C 16,8 C 78 % 1020,2 hPa 0,0 l/m 0 min 0 min 0,0 UV-I 0 W/m 0,0 km/h (0 Bft)
20.07.2013 22:22 19,7 C 16,8 C 78 % 1020,1 hPa 0,0 l/m 0 min 0 min 0,0 UV-I 0 W/m 0,0 km/h (0 Bft)
20.07.2013 22:24 19,6 C 16,8 C 79 % 1020,1 hPa 0,0 l/m 0 min 0 min 0,0 UV-I 0 W/m 0,0 km/h (0 Bft)
20.07.2013 22:26 19,6 C 16,8 C 79 % 1020,1 hPa 0,0 l/m 0 min 0 min 0,0 UV-I 0 W/m 0,0 km/h (0 Bft)
20.07.2013 22:28 19,5 C 16,8 C 79 % 1020,0 hPa 0,0 l/m 0 min 0 min 0,0 UV-I 0 W/m 0,0 km/h (0 Bft)
20.07.2013 22:30 19,4 C 16,8 C 79 % 1020,1 hPa 0,0 l/m 0 min 0 min 0,0 UV-I 0 W/m 0,0 km/h (0 Bft)
20.07.2013 22:32 19,4 C 16,8 C 79 % 1020,2 hPa 0,0 l/m 0 min 0 min 0,0 UV-I 0 W/m 0,0 km/h (0 Bft)
20.07.2013 22:34 19,3 C 16,8 C 79 % 1020,2 hPa 0,0 l/m 0 min 0 min 0,0 UV-I 0 W/m 0,0 km/h (0 Bft)
20.07.2013 22:36 19,3 C 16,2 C 79 % 1020,2 hPa 0,0 l/m 0 min 0 min 0,0 UV-I 0 W/m 0,0 km/h (0 Bft)
20.07.2013 22:38 19,3 C 16,2 C 79 % 1020,2 hPa 0,0 l/m 0 min 0 min 0,0 UV-I 0 W/m 0,0 km/h (0 Bft)
20.07.2013 22:40 19,2 C 16,2 C 80 % 1020,2 hPa 0,0 l/m 0 min 0 min 0,0 UV-I 0 W/m 0,0 km/h (0 Bft)
20.07.2013 22:42 19,2 C 16,2 C 80 % 1020,3 hPa 0,0 l/m 0 min 0 min 0,0 UV-I 0 W/m 0,0 km/h (0 Bft)
20.07.2013 22:44 19,1 C 16,2 C 80 % 1020,3 hPa 0,0 l/m 0 min 0 min 0,0 UV-I 0 W/m 0,0 km/h (0 Bft)
20.07.2013 22:46 19,1 C 16,2 C 80 % 1020,3 hPa 0,0 l/m 0 min 0 min 0,0 UV-I 0 W/m 0,0 km/h (0 Bft)
20.07.2013 22:48 19,0 C 16,2 C 80 % 1020,3 hPa 0,0 l/m 0 min 0 min 0,0 UV-I 0 W/m 0,0 km/h (0 Bft)
20.07.2013 22:50 18,9 C 16,2 C 80 % 1020,2 hPa 0,0 l/m 0 min 0 min 0,0 UV-I 0 W/m 0,0 km/h (0 Bft)
20.07.2013 22:52 18,9 C 16,2 C 80 % 1020,3 hPa 0,0 l/m 0 min 0 min 0,0 UV-I 0 W/m 0,0 km/h (0 Bft)
20.07.2013 22:54 18,9 C 15,7 C 80 % 1020,2 hPa 0,0 l/m 0 min 0 min 0,0 UV-I 0 W/m 0,0 km/h (0 Bft)
20.07.2013 22:56 18,8 C 15,7 C 81 % 1020,1 hPa 0,0 l/m 0 min 0 min 0,0 UV-I 0 W/m 0,0 km/h (0 Bft)
20.07.2013 22:58 18,8 C 15,7 C 81 % 1020,2 hPa 0,0 l/m 0 min 0 min 0,0 UV-I 0 W/m 0,0 km/h (0 Bft)
20.07.2013 23:00 18,7 C 15,7 C 81 % 1020,2 hPa 0,0 l/m 0 min 0 min 0,0 UV-I 0 W/m 0,0 km/h (0 Bft)
20.07.2013 23:02 18,7 C 15,7 C 81 % 1020,3 hPa 0,0 l/m 0 min 0 min 0,0 UV-I 0 W/m 0,0 km/h (0 Bft)
20.07.2013 23:06 18,6 C 15,7 C 81 % 1020,3 hPa 0,0 l/m 0 min 0 min 0,0 UV-I 0 W/m 0,0 km/h (0 Bft)
20.07.2013 23:08 18,6 C 15,7 C 81 % 1020,3 hPa 0,0 l/m 0 min 0 min 0,0 UV-I 0 W/m 0,0 km/h (0 Bft)
20.07.2013 23:10 18,5 C 15,7 C 82 % 1020,3 hPa 0,0 l/m 0 min 0 min 0,0 UV-I 0 W/m 0,0 km/h (0 Bft)
20.07.2013 23:12 18,4 C 15,7 C 82 % 1020,3 hPa 0,0 l/m 0 min 0 min 0,0 UV-I 0 W/m 0,0 km/h (0 Bft)
20.07.2013 23:14 18,4 C 15,7 C 82 % 1020,3 hPa 0,0 l/m 0 min 0 min 0,0 UV-I 0 W/m 0,0 km/h (0 Bft)
20.07.2013 23:16 18,3 C 15,7 C 82 % 1020,4 hPa 0,0 l/m 0 min 0 min 0,0 UV-I 0 W/m 0,0 km/h (0 Bft)
20.07.2013 23:18 18,3 C 15,7 C 82 % 1020,3 hPa 0,0 l/m 0 min 0 min 0,0 UV-I 0 W/m 0,0 km/h (0 Bft)
20.07.2013 23:20 18,3 C 15,7 C 82 % 1020,3 hPa 0,0 l/m 0 min 0 min 0,0 UV-I 0 W/m 0,0 km/h (0 Bft)
20.07.2013 23:22 18,2 C 15,7 C 82 % 1020,3 hPa 0,0 l/m 0 min 0 min 0,0 UV-I 0 W/m 0,0 km/h (0 Bft)
20.07.2013 23:24 18,2 C 15,7 C 83 % 1020,4 hPa 0,0 l/m 0 min 0 min 0,0 UV-I 0 W/m 0,0 km/h (0 Bft)
20.07.2013 23:26 18,1 C 15,7 C 83 % 1020,3 hPa 0,0 l/m 0 min 0 min 0,0 UV-I 0 W/m 0,0 km/h (0 Bft)
20.07.2013 23:28 18,1 C 15,7 C 83 % 1020,3 hPa 0,0 l/m 0 min 0 min 0,0 UV-I 0 W/m 0,0 km/h (0 Bft)
20.07.2013 23:30 18,1 C 15,1 C 83 % 1020,4 hPa 0,0 l/m 0 min 0 min 0,0 UV-I 0 W/m 0,0 km/h (0 Bft)
20.07.2013 23:32 18,0 C 15,1 C 83 % 1020,4 hPa 0,0 l/m 0 min 0 min 0,0 UV-I 0 W/m 0,0 km/h (0 Bft)
20.07.2013 23:34 17,9 C 15,1 C 83 % 1020,4 hPa 0,0 l/m 0 min 0 min 0,0 UV-I 0 W/m 0,0 km/h (0 Bft)
20.07.2013 23:36 17,9 C 15,1 C 83 % 1020,4 hPa 0,0 l/m 0 min 0 min 0,0 UV-I 0 W/m 0,0 km/h (0 Bft)
20.07.2013 23:38 17,9 C 15,1 C 84 % 1020,4 hPa 0,0 l/m 0 min 0 min 0,0 UV-I 0 W/m 0,0 km/h (0 Bft)
20.07.2013 23:40 17,8 C 15,1 C 83 % 1020,4 hPa 0,0 l/m 0 min 0 min 0,0 UV-I 0 W/m 0,0 km/h (0 Bft)
20.07.2013 23:42 17,8 C 15,1 C 84 % 1020,4 hPa 0,0 l/m 0 min 0 min 0,0 UV-I 0 W/m 0,0 km/h (0 Bft)
20.07.2013 23:44 17,8 C 15,1 C 84 % 1020,3 hPa 0,0 l/m 0 min 0 min 0,0 UV-I 0 W/m 0,0 km/h (0 Bft)
20.07.2013 23:46 17,7 C 15,1 C 84 % 1020,4 hPa 0,0 l/m 0 min 0 min 0,0 UV-I 0 W/m 0,0 km/h (0 Bft)
20.07.2013 23:48 17,7 C 15,1 C 84 % 1020,4 hPa 0,0 l/m 0 min 0 min 0,0 UV-I 0 W/m 0,0 km/h (0 Bft)
20.07.2013 23:50 17,6 C 15,1 C 84 % 1020,4 hPa 0,0 l/m 0 min 0 min 0,0 UV-I 0 W/m 0,0 km/h (0 Bft)
20.07.2013 23:52 17,6 C 15,1 C 85 % 1020,4 hPa 0,0 l/m 0 min 0 min 0,0 UV-I 0 W/m 0,0 km/h (0 Bft)
20.07.2013 23:54 17,5 C 15,1 C 85 % 1020,4 hPa 0,0 l/m 0 min 0 min 0,0 UV-I 0 W/m 0,0 km/h (0 Bft)
20.07.2013 23:56 17,5 C 15,1 C 85 % 1020,4 hPa 0,0 l/m 0 min 0 min 0,0 UV-I 0 W/m 0,0 km/h (0 Bft)
20.07.2013 23:58 17,4 C 15,1 C 85 % 1020,4 hPa 0,0 l/m 0 min 0 min 0,0 UV-I 0 W/m 0,0 km/h (0 Bft)
_ Min-Zeit 06:02 04:36 17:18 20:14 - - - - - 00:26
Minimum _ 14,5 C 13,4 C 66 % 1019,7 hPa - - - - - 0,0 km/h (0 Bft)
_ Max-Zeit 17:32 16:30 07:06 00:08 00:00 08:06 00:00 14:44 16:44 14:54
Maximum _ 23,2 C 24,0 C 94 % 1022,4 hPa 0,0 l/m 2 min 0 min 3,5 UV-I 691 W/m 25,7 km/h
N (4 Bft)
Durchschnitt _ 19,1 C 18,3 C 79 % 1021,3 hPa #0,0 l/m #1:58 h #0 min. 1,3 UV-I 198 W/m 5,8 km/h (2 Bft)
© 2013 W. Hausmann